CWXXXX Weather Reports


time (UTC)temp
F
wind
direction
speed
knots
gust
knots
rain 1hr
in
rain 24hr
in
rain mn
in
humidity
%
barometer
mb
20260906220907 78 109 0.9 1.7 0.00 0.00 0.00 73 1022.3
20260906220853 78 88 0.0 5.2 0.00 0.00 0.00 57 1023.6
20260906220832 72 209 0.0 0.0 0.00 0.00 0.00 72 1022.6
20260906220822 69 279 2.6 2.6 0.00 0.00 0.00 72 1021.8
20260906220817 78 55 0.9 2.6 0.00 0.00 0.00 62 1021.6
20260906220815 68 314 0.0 0.0 0.00 0.00 0.00 77 1023.4
20260906220813 63 61 5.2 13.9 0.12 2.75 0.00 76 1010.2
20260906220406 76 99 0.0 0.0 0.00 0.00 0.00 85 1019.3
20260906220404 78 109 0.9 1.7 0.00 0.00 0.00 73 1022.3
20260906220359 78 116 0.0 7.0 0.00 0.00 0.00 57 1023.6
20260906220329 73 209 0.0 0.0 0.00 0.00 0.00 72 1022.4
20260906220322 69 279 1.7 2.6 0.00 0.00 0.00 71 1021.8
20260906220317 78 56 1.7 2.6 0.00 0.00 0.00 63 1021.6
20260906220315 68 314 0.0 0.0 0.00 0.00 0.00 77 1023.3
20260906215904 78 109 0.9 1.7 0.00 0.00 0.00 73 1022.3
20260906215850 78 51 2.6 2.6 0.00 0.00 0.00 57 1023.6
20260906215832 73 209 0.0 0.0 0.00 0.00 0.00 71 1022.4
20260906215817 78 55 1.7 2.6 0.00 0.00 0.00 63 1021.6
20260906215815 68 314 0.0 0.0 0.00 0.00 0.00 77 1023.3
20260906215404 78 109 0.9 2.6 0.00 0.00 0.00 72 1022.3
20260906215350 78 90 0.0 1.7 0.00 0.00 0.00 57 1023.5
20260906215329 73 209 0.0 0.0 0.00 0.00 0.00 71 1022.3
20260906215320 69 279 1.7 3.5 0.00 0.00 0.00 71 1021.9
20260906215318 78 55 1.7 2.6 0.00 0.00 0.00 63 1021.6
20260906215315 68 314 0.0 0.0 0.00 0.00 0.00 76 1023.2
20260906215313 66 36 6.1 18.2 0.10 2.75 0.00 74 1012.8
20260906214903 77 99 0.0 0.0 0.00 0.00 0.00 87 1019.1
20260906214901 78 109 2.6 2.6 0.00 0.00 0.00 72 1022.4
20260906214856 78 84 0.0 2.6 0.00 0.00 0.00 56 1023.4
20260906214835 73 209 0.0 0.0 0.00 0.00 0.00 72 1022.3
20260906214820 77 55 1.7 2.6 0.00 0.00 0.00 64 1021.6
20260906214815 68 314 0.0 0.0 0.00 0.00 0.00 75 1023.2
20260906214813 72 21 9.6 20.9 0.11 2.75 0.00 67 1018.6
20260906214404 79 109 0.9 2.6 0.00 0.00 0.00 72 1022.3
20260906214359 78 121 0.0 0.0 0.00 0.00 0.00 56 1023.4
20260906214329 72 209 0.0 0.0 0.00 0.00 0.00 72 1022.3
20260906214320 78 69 12.2 21.7 0.12 2.75 0.00 62 1023.6
20260906214315 69 314 0.0 0.0 0.00 0.00 0.00 75 1023.2
20260906213904 79 111 0.9 3.5 0.00 0.00 0.00 72 1022.3
20260906213850 78 143 0.0 6.1 0.00 0.00 0.00 56 1023.5
20260906213829 73 209 0.0 0.9 0.00 0.00 0.00 72 1022.3
20260906213817 77 55 2.6 3.5 0.00 0.00 0.00 65 1021.6
20260906213815 69 314 0.0 0.0 0.00 0.00 0.00 75 1023.2
20260906213405 77 99 0.0 0.0 0.00 0.00 0.00 88 1019.0
20260906213350 78 88 0.0 0.9 0.00 0.00 0.00 56 1023.4
20260906213338 73 208 0.0 0.9 0.00 0.00 0.00 72 1022.3
20260906213323 70 284 1.7 2.6 0.00 0.00 0.00 70 1021.9
20260906213317 77 55 3.5 4.3 0.00 0.00 0.00 66 1021.5
20260906213315 69 314 0.0 0.0 0.00 0.00 0.00 75 1023.0
20260906212901 79 113 1.7 2.6 0.00 0.00 0.00 71 1022.4
20260906212853 78 94 0.0 4.3 0.00 0.00 0.00 56 1023.4
20260906212830 73 209 0.0 0.0 0.00 0.00 0.00 71 1022.3
20260906212824 77 55 2.6 4.3 0.00 0.00 0.00 66 1021.6
20260906212822 73 25 9.6 18.2 0.10 2.75 0.00 67 1019.1
20260906212816 70 284 2.6 2.6 0.00 0.00 0.00 70 1021.9
20260906212407 79 118 0.9 3.5 0.00 0.00 0.00 70 1022.4
20260906212350 79 80 0.0 3.5 0.00 0.00 0.00 55 1023.4
20260906212329 73 208 0.0 0.0 0.00 0.00 0.00 71 1022.3
20260906212325 70 284 2.6 2.6 0.00 0.00 0.00 70 1021.8
20260906212318 69 314 0.0 0.0 0.00 0.00 0.00 73 1023.0
20260906212316 66 31 7.0 15.6 0.12 2.75 0.00 73 1013.2
20260906211903 78 99 0.0 0.0 0.00 0.00 0.00 88 1018.9
20260906211901 79 115 0.9 2.6 0.00 0.00 0.00 70 1022.4
20260906211850 79 57 1.7 2.6 0.00 0.00 0.00 55 1023.3
20260906211829 73 209 0.0 0.0 0.00 0.00 0.00 71 1022.3
20260906211824 70 314 0.0 0.0 0.00 0.00 0.00 73 1022.9
20260906211818 78 55 3.5 3.5 0.00 0.00 0.00 67 1021.5
20260906211816 69 285 1.7 2.6 0.00 0.00 0.00 71 1021.8
20260906211813 61 76 4.3 13.0 0.12 2.75 0.00 78 1008.7
20260906211404 80 114 0.9 2.6 0.00 0.00 0.00 70 1022.3
20260906211350 79 86 0.0 0.0 0.00 0.00 0.00 55 1023.3
20260906211329 73 209 0.0 0.0 0.00 0.00 0.00 70 1022.2
20260906211318 78 55 2.6 2.6 0.00 0.00 0.00 69 1021.5
20260906211316 70 279 1.7 3.5 0.00 0.00 0.00 70 1021.8
20260906211313 60 89 3.5 13.9 0.11 2.75 0.00 79 1007.4
20260906210901 80 114 0.9 3.5 0.00 0.00 0.00 69 1022.3
20260906210856 79 44 0.0 0.0 0.00 0.00 0.00 55 1023.2
20260906210832 73 209 0.0 0.0 0.00 0.00 0.00 70 1022.1
20260906210819 70 279 2.6 3.5 0.00 0.00 0.00 70 1021.8
20260906210816 63 65 5.2 16.5 0.10 2.75 0.00 77 1009.8
20260906210408 78 99 0.0 0.0 0.00 0.00 0.00 88 1019.0
20260906210401 80 117 1.7 3.5 0.00 0.00 0.00 69 1022.3
20260906210350 79 99 0.0 0.0 0.00 0.00 0.00 55 1023.2
20260906210336 73 209 0.0 0.0 0.00 0.00 0.00 71 1022.1
20260906210320 78 55 1.7 3.5 0.00 0.00 0.00 71 1021.5
20260906210318 70 314 0.0 0.0 0.00 0.00 0.00 72 1022.7
20260906210316 69 278 1.7 3.5 0.00 0.00 0.00 70 1021.8
20260906205902 80 111 0.9 2.6 0.00 0.00 0.00 69 1022.3
20260906205850 79 93 0.0 0.0 0.00 0.00 0.00 54 1023.3
20260906205829 73 209 0.0 0.0 0.00 0.00 0.00 71 1022.1
20260906205821 78 55 2.6 3.5 0.00 0.00 0.00 72 1021.5
20260906205816 69 277 2.6 3.5 0.00 0.00 0.00 70 1021.9
20260906205813 75 42 10.4 20.9 0.12 2.75 0.00 65 1020.8
20260906205401 80 115 2.6 2.6 0.00 0.00 0.00 68 1022.3
20260906205356 80 126 0.0 0.0 0.00 0.00 0.00 54 1023.2
20260906205330 73 209 0.0 0.0 0.00 0.00 0.00 71 1022.1
20260906205322 79 82 12.2 21.7 0.12 2.75 0.00 60 1024.8
20260906205320 78 55 2.6 3.5 0.00 0.00 0.00 72 1021.5
20260906205317 69 277 2.6 3.5 0.00 0.00 0.00 70 1021.9
20260906205315 70 314 0.0 0.0 0.00 0.00 0.00 72 1022.7
20260906204908 78 99 0.0 0.0 0.00 0.00 0.00 87 1018.9
20260906204901 81 118 2.6 3.5 0.00 0.00 0.00 68 1022.3
20260906204850 80 113 0.0 0.0 0.00 0.00 0.00 54 1023.2
20260906204832 73 209 0.0 0.0 0.00 0.00 0.00 70 1022.0
20260906204819 69 277 1.7 3.5 0.00 0.00 0.00 70 1021.9
20260906204817 78 55 0.9 2.6 0.00 0.00 0.00 72 1021.5
20260906204813 80 87 13.0 21.7 0.10 2.75 0.00 60 1025.4
20260906204407 81 127 1.7 3.5 0.00 0.00 0.00 68 1022.2
20260906204350 80 113 0.0 0.0 0.00 0.00 0.00 53 1023.0
20260906204329 74 209 0.0 0.9 0.00 0.00 0.00 70 1022.0
20260906204317 70 277 1.7 2.6 0.00 0.00 0.00 69 1021.9
20260906204315 71 313 0.0 0.0 0.00 0.00 0.00 72 1022.6
20260906204313 76 56 11.3 20.0 0.10 2.75 0.00 63 1022.2
20260906203907 81 116 1.7 3.5 0.00 0.00 0.00 68 1022.2
20260906203850 80 110 0.0 0.0 0.00 0.00 0.00 53 1023.0
20260906203829 74 209 0.0 0.0 0.00 0.00 0.00 69 1022.0
20260906203821 71 313 0.0 0.0 0.00 0.00 0.00 71 1022.6
20260906203818 78 55 2.6 2.6 0.00 0.00 0.00 69 1021.6
20260906203816 70 277 1.7 2.6 0.00 0.00 0.00 69 1021.9
20260906203813 70 2 8.7 17.4 0.11 2.75 0.00 69 1016.7
20260906203406 78 99 0.0 0.0 0.00 0.00 0.00 87 1018.9
20260906203401 81 105 1.7 3.5 0.00 0.00 0.00 68 1022.2
20260906203350 80 123 0.0 0.0 0.00 0.00 0.00 53 1023.0
20260906203329 74 209 0.0 0.9 0.00 0.00 0.00 69 1022.0
20260906203321 71 313 0.0 0.0 0.00 0.00 0.00 71 1022.6
20260906203319 64 52 5.2 13.9 0.12 2.75 0.00 75 1011.1
20260906203317 70 277 1.7 2.6 0.00 0.00 0.00 69 1021.9
20260906202901 81 102 1.7 3.5 0.00 0.00 0.00 68 1022.1
20260906202850 80 71 0.0 0.0 0.00 0.00 0.00 52 1023.0
20260906202838 74 209 0.0 0.0 0.00 0.00 0.00 68 1021.9
20260906202821 79 55 1.7 1.7 0.00 0.00 0.00 66 1021.6
20260906202819 70 279 2.6 3.5 0.00 0.00 0.00 69 1021.9
20260906202813 60 86 3.5 12.2 0.12 2.75 0.00 79 1007.7
20260906202401 81 117 2.6 5.2 0.00 0.00 0.00 68 1022.0
20260906202350 81 71 0.0 0.0 0.00 0.00 0.00 52 1022.9
20260906202335 75 209 0.0 0.9 0.00 0.00 0.00 68 1021.9
20260906202321 79 55 0.9 1.7 0.00 0.00 0.00 65 1021.7
20260906202319 61 84 3.5 14.8 0.10 2.75 0.00 79 1007.9
20260906202317 70 280 2.6 3.5 0.00 0.00 0.00 69 1021.8
20260906201908 78 99 0.0 0.0 0.00 0.00 0.00 87 1019.0
20260906201853 81 72 0.0 0.0 0.00 0.00 0.00 52 1022.8
20260906201829 75 209 0.0 0.0 0.00 0.00 0.00 68 1021.8
20260906201820 79 55 0.0 1.7 0.00 0.00 0.00 66 1021.7
20260906201816 70 288 2.6 2.6 0.00 0.00 0.00 69 1021.9
20260906201401 81 109 2.6 3.5 0.00 0.00 0.00 68 1022.0
20260906201353 81 69 0.0 0.0 0.00 0.00 0.00 51 1022.8
20260906201335 75 209 0.0 0.0 0.00 0.00 0.00 67 1021.9
20260906201319 70 288 1.7 2.6 0.00 0.00 0.00 69 1021.8
20260906201317 79 55 0.9 2.6 0.00 0.00 0.00 66 1021.7
20260906201313 71 9 8.7 20.0 0.11 2.75 0.00 68 1017.4
20260906200904 82 105 3.5 5.2 0.00 0.00 0.00 68 1022.0
20260906200850 81 69 0.0 0.0 0.00 0.00 0.00 51 1022.7
20260906200835 75 209 0.0 0.0 0.00 0.00 0.00 67 1021.8
20260906200822 77 61 11.3 21.7 0.12 2.75 0.00 63 1022.7
20260906200816 72 314 0.0 0.0 0.00 0.00 0.00 68 1022.4
20260906200408 79 99 0.0 0.0 0.00 0.00 0.00 87 1018.8
20260906200401 82 103 1.7 3.5 0.00 0.00 0.00 68 1022.0
20260906200350 81 30 0.0 0.0 0.00 0.00 0.00 51 1022.7
20260906200329 75 208 0.0 0.9 0.00 0.00 0.00 67 1021.8
20260906200325 69 289 1.7 2.6 0.00 0.00 0.00 70 1021.8
20260906200322 79 55 0.9 1.7 0.00 0.00 0.00 67 1021.8
20260906200318 73 314 0.0 0.0 0.00 0.00 0.00 67 1022.4
20260906200313 80 88 13.0 21.7 0.11 2.75 0.00 60 1025.5
20260906195901 82 102 2.6 5.2 0.00 0.00 0.00 68 1022.0
20260906195853 81 17 0.0 0.0 0.00 0.00 0.00 51 1022.8
20260906195835 76 209 0.0 0.0 0.00 0.00 0.00 67 1021.7
20260906195825 73 314 0.0 0.0 0.00 0.00 0.00 67 1022.3
20260906195818 79 55 1.7 2.6 0.00 0.00 0.00 65 1021.8
20260906195816 69 290 2.6 2.6 0.00 0.00 0.00 70 1021.8
20260906195813 79 79 12.2 20.9 0.10 2.75 0.00 61 1024.5
20260906195407 82 113 1.7 5.2 0.00 0.00 0.00 68 1022.0
20260906195350 82 49 0.0 0.0 0.00 0.00 0.00 51 1022.7
20260906195330 76 209 0.0 0.0 0.00 0.00 0.00 66 1021.7
20260906195321 73 314 0.0 0.0 0.00 0.00 0.00 67 1022.3
20260906195318 78 55 1.7 1.7 0.00 0.00 0.00 65 1021.8
20260906195313 74 36 10.4 19.1 0.10 2.75 0.00 65 1020.2
20260906194904 82 119 1.7 4.3 0.00 0.00 0.00 68 1022.0
20260906194850 82 22 0.0 0.0 0.00 0.00 0.00 50 1022.6
20260906194829 76 209 0.0 0.0 0.00 0.00 0.00 66 1021.6
20260906194819 69 292 0.9 2.6 0.00 0.00 0.00 70 1021.8
20260906194815 73 314 0.0 0.0 0.00 0.00 0.00 67 1022.3
20260906194404 82 119 1.7 6.1 0.00 0.00 0.00 67 1022.0
20260906194353 82 90 0.0 0.0 0.00 0.00 0.00 50 1022.6
20260906194332 76 209 0.0 0.0 0.00 0.00 0.00 66 1021.6
20260906194320 79 55 0.0 1.7 0.00 0.00 0.00 67 1021.7
20260906194316 62 69 4.3 13.0 0.12 2.75 0.00 77 1009.4
20260906193901 83 111 2.6 3.5 0.00 0.00 0.00 67 1022.0
20260906193853 83 67 0.0 0.0 0.00 0.00 0.00 49 1022.6
20260906193838 76 209 0.0 0.9 0.00 0.00 0.00 65 1021.6
20260906193822 60 89 3.5 13.0 0.11 2.75 0.00 79 1007.3
20260906193819 69 294 1.7 2.6 0.00 0.00 0.00 70 1021.7
20260906193817 79 55 0.9 1.7 0.00 0.00 0.00 63 1021.7
20260906193815 74 311 0.0 0.0 0.00 0.00 0.00 66 1022.2
20260906193410 83 107 1.7 5.2 0.00 0.00 0.00 67 1021.9
20260906193350 83 58 0.0 0.0 0.00 0.00 0.00 49 1022.5
20260906193344 80 99 0.0 0.0 0.00 0.00 0.00 86 1018.7
20260906193332 76 209 0.0 0.9 0.00 0.00 0.00 66 1021.5
20260906193327 79 55 0.0 2.6 0.00 0.00 0.00 61 1021.7
20260906193316 70 295 0.9 2.6 0.00 0.00 0.00 69 1021.7
20260906193313 62 73 4.3 15.6 0.10 2.75 0.00 78 1009.1
20260906192901 83 107 2.6 6.1 0.00 0.00 0.00 67 1021.9
20260906192850 83 42 0.0 0.0 0.00 0.00 0.00 49 1022.5
20260906192833 77 209 0.0 0.0 0.00 0.00 0.00 65 1021.5
20260906192821 74 311 0.0 0.0 0.00 0.00 0.00 65 1022.1
20260906192817 78 55 0.9 2.6 0.00 0.00 0.00 64 1021.7
20260906192401 83 107 2.6 6.1 0.00 0.00 0.00 67 1021.8
20260906192359 83 68 0.0 0.0 0.00 0.00 0.00 49 1022.4
20260906192329 77 209 0.0 0.9 0.00 0.00 0.00 65 1021.5
20260906192324 78 55 0.9 1.7 0.00 0.00 0.00 72 1021.7
20260906192322 74 309 0.0 0.0 0.00 0.00 0.00 64 1022.0
20260906192319 70 296 1.7 2.6 0.00 0.00 0.00 69 1021.6
20260906191907 83 115 5.2 6.1 0.00 0.00 0.00 67 1021.8
20260906191853 83 71 0.0 0.0 0.00 0.00 0.00 48 1022.4
20260906191838 77 209 0.0 0.9 0.00 0.00 0.00 64 1021.5
20260906191831 80 99 0.0 0.0 0.00 0.00 0.00 85 1018.6
20260906191824 78 55 0.9 1.7 0.00 0.00 0.00 74 1021.7
20260906191816 70 296 2.6 2.6 0.00 0.00 0.00 69 1021.6
20260906191813 79 76 12.2 21.7 0.12 2.75 0.00 61 1024.2
20260906191401 84 119 4.3 6.1 0.00 0.00 0.00 67 1021.7
20260906191356 83 84 0.0 0.0 0.00 0.00 0.00 49 1022.3
20260906191339 77 209 0.0 0.0 0.00 0.00 0.00 64 1021.4
20260906191328 78 55 0.9 1.7 0.00 0.00 0.00 75 1021.7
20260906191321 75 304 0.0 0.0 0.00 0.00 0.00 64 1022.0
20260906191317 70 296 1.7 2.6 0.00 0.00 0.00 69 1021.6
20260906191313 80 89 13.0 21.7 0.11 2.75 0.00 60 1025.6
20260906190901 84 111 1.7 3.5 0.00 0.00 0.00 67 1021.6
20260906190850 84 58 0.0 0.0 0.00 0.00 0.00 48 1022.2
20260906190829 78 209 0.0 0.9 0.00 0.00 0.00 63 1021.3
20260906190824 75 304 0.0 0.9 0.00 0.00 0.00 63 1021.9
20260906190819 78 55 0.9 0.9 0.00 0.00 0.00 76 1021.7
20260906190816 77 65 11.3 20.0 0.10 2.75 0.00 62 1023.1
20260906190404 84 118 1.7 5.2 0.00 0.00 0.00 68 1021.7
20260906190353 84 58 0.0 0.0 0.00 0.00 0.00 48 1022.1
20260906190336 80 99 0.0 0.0 0.00 0.00 0.00 84 1018.5
20260906190329 78 209 0.0 1.7 0.00 0.00 0.00 62 1021.2
20260906190323 70 315 1.7 2.6 0.00 0.00 0.00 69 1021.6
20260906190321 78 55 0.0 1.7 0.00 0.00 0.00 76 1021.7
20260906190315 75 302 0.0 2.6 0.00 0.00 0.00 63 1021.9
20260906190313 72 14 8.7 17.4 0.11 2.75 0.00 68 1017.9
20260906185904 84 111 2.6 5.2 0.00 0.00 0.00 68 1021.7
20260906185850 84 82 0.0 0.0 0.00 0.00 0.00 47 1022.0
20260906185832 78 209 0.0 0.9 0.00 0.00 0.00 62 1021.2
20260906185818 78 55 0.0 1.7 0.00 0.00 0.00 75 1021.6
20260906185816 70 315 0.9 2.6 0.00 0.00 0.00 69 1021.5
20260906185813 65 42 6.1 14.8 0.12 2.75 0.00 74 1012.1
20260906185404 84 102 1.7 3.5 0.00 0.00 0.00 68 1021.5
20260906185350 85 113 0.0 0.0 0.00 0.00 0.00 47 1022.0
20260906185332 78 209 0.0 1.7 0.00 0.00 0.00 63 1021.2
20260906185318 78 55 0.9 1.7 0.00 0.00 0.00 74 1021.5
20260906185315 76 300 1.7 2.6 0.00 0.00 0.00 61 1021.7
20260906185313 61 82 4.3 13.0 0.12 2.75 0.00 79 1008.1
20260906184901 84 106 0.9 5.2 0.00 0.00 0.00 68 1021.5
20260906184850 85 11 0.0 0.0 0.00 0.00 0.00 46 1021.9
20260906184839 80 99 0.0 0.0 0.00 0.00 0.00 83 1018.3
20260906184829 79 209 0.0 0.0 0.00 0.00 0.00 62 1021.1
20260906184825 78 55 0.0 0.0 0.00 0.00 0.00 75 1021.5
20260906184819 71 9 1.7 2.6 0.00 0.00 0.00 68 1021.4
20260906184816 60 87 3.5 13.9 0.11 2.75 0.00 79 1007.6
20260906184407 85 89 0.9 4.3 0.00 0.00 0.00 68 1021.5
20260906184350 85 209 0.0 0.0 0.00 0.00 0.00 47 1021.8
20260906184332 79 209 0.0 0.0 0.00 0.00 0.00 62 1021.0
20260906184324 76 303 0.0 0.0 0.00 0.00 0.00 60 1021.7
20260906184318 78 56 0.0 0.0 0.00 0.00 0.00 75 1021.3
20260906184316 64 56 5.2 16.5 0.10 2.75 0.00 76 1010.7
20260906183907 85 115 1.7 6.1 0.00 0.00 0.00 68 1021.5
20260906183853 85 159 0.0 0.0 0.00 0.00 0.00 45 1021.7
20260906183829 80 209 0.0 0.9 0.00 0.00 0.00 61 1020.9
20260906183823 78 55 0.0 0.9 0.00 0.00 0.00 75 1021.3
20260906183821 76 304 0.0 2.6 0.00 0.00 0.00 60 1021.7
20260906183819 71 14 1.7 3.5 0.00 0.00 0.00 68 1021.3
20260906183404 85 94 3.5 6.1 0.00 0.00 0.00 68 1021.5
20260906183353 85 118 0.0 0.0 0.00 0.00 0.00 45 1021.7
20260906183330 80 209 0.9 1.7 0.00 0.00 0.00 61 1020.8
20260906183325 71 238 2.6 2.6 0.00 0.00 0.00 68 1021.3
20260906183317 78 55 0.9 1.7 0.00 0.00 0.00 75 1021.2
20260906183315 77 337 0.0 2.6 0.00 0.00 0.00 60 1021.6
20260906183313 76 52 11.3 21.7 0.12 2.75 0.00 64 1021.8
20260906182905 85 102 0.9 2.6 0.00 0.00 0.00 69 1021.3
20260906182853 86 94 0.0 0.0 0.00 0.00 0.00 45 1021.6
20260906182829 80 209 0.0 0.0 0.00 0.00 0.00 61 1020.8
20260906182820 78 55 0.0 0.0 0.00 0.00 0.00 74 1021.2
20260906182818 77 319 0.9 2.6 0.00 0.00 0.00 59 1021.5
20260906182816 72 238 0.9 2.6 0.00 0.00 0.00 67 1021.3
20260906182813 80 86 13.0 21.7 0.12 2.75 0.00 60 1025.2
20260906182404 86 94 1.7 4.3 0.00 0.00 0.00 68 1021.3
20260906182353 86 68 0.0 0.0 0.00 0.00 0.00 45 1021.5
20260906182335 80 209 0.0 0.0 0.00 0.00 0.00 59 1020.6
20260906182326 78 55 0.0 0.0 0.00 0.00 0.00 74 1021.1
20260906182318 77 304 1.7 3.5 0.00 0.00 0.00 59 1021.5
20260906182316 72 215 0.0 0.9 0.00 0.00 0.00 67 1021.2
20260906182314 79 84 13.0 21.7 0.10 2.75 0.00 60 1025.0
20260906181901 86 62 2.6 3.5 0.00 0.00 0.00 68 1021.3
20260906181859 86 68 0.0 0.0 0.00 0.00 0.00 45 1021.4
20260906181835 81 209 0.0 0.0 0.00 0.00 0.00 60 1020.6
20260906181831 82 99 0.0 0.0 0.00 0.00 0.00 79 1017.9
20260906181820 78 55 0.0 0.0 0.00 0.00 0.00 74 1021.1
20260906181818 78 310 0.9 2.6 0.00 0.00 0.00 59 1021.4
20260906181813 75 47 10.4 19.1 0.10 2.75 0.00 64 1021.3
20260906181404 86 92 1.7 4.3 0.00 0.00 0.00 68 1021.3
20260906181350 86 52 0.0 0.0 0.00 0.00 0.00 45 1021.4
20260906181331 78 55 0.0 1.7 0.00 0.00 0.00 74 1021.1
20260906181329 81 209 0.0 1.7 0.00 0.00 0.00 58 1020.5
20260906181323 72 221 0.9 2.6 0.00 0.00 0.00 67 1021.1
20260906181321 78 304 1.7 2.6 0.00 0.00 0.00 58 1021.2
20260906181313 69 9 7.8 16.5 0.11 2.75 0.00 71 1015.5
20260906180901 86 69 1.7 5.2 0.00 0.00 0.00 68 1021.2
20260906180850 86 89 0.0 0.0 0.00 0.00 0.00 45 1021.4
20260906180829 81 209 0.9 0.9 0.00 0.00 0.00 59 1020.4
20260906180824 78 55 0.9 1.7 0.00 0.00 0.00 74 1021.0
20260906180818 63 61 5.2 13.9 0.12 2.75 0.00 76 1010.2
20260906180816 72 221 0.9 2.6 0.00 0.00 0.00 67 1021.0
20260906180401 87 76 1.7 3.5 0.00 0.00 0.00 67 1021.0
20260906180353 86 20 0.0 0.0 0.00 0.00 0.00 45 1021.3
20260906180333 83 99 0.0 0.0 0.00 0.00 0.00 75 1017.8
20260906180329 81 209 0.9 0.9 0.00 0.00 0.00 60 1020.4
20260906180320 72 216 0.0 1.7 0.00 0.00 0.00 67 1021.0
20260906180317 79 55 1.7 2.6 0.00 0.00 0.00 74 1021.0
20260906180315 78 316 1.7 3.5 0.00 0.00 0.00 57 1021.1
20260906180313 60 88 3.5 13.0 0.11 2.75 0.00 79 1007.4
20260906175907 87 73 2.6 4.3 0.00 0.00 0.00 67 1021.1
20260906175853 86 329 0.0 0.0 0.00 0.00 0.00 44 1021.1
20260906175830 81 209 0.0 0.0 0.00 0.00 0.00 58 1020.3
20260906175823 79 55 1.7 2.6 0.00 0.00 0.00 73 1021.0
20260906175819 73 216 0.9 1.7 0.00 0.00 0.00 67 1021.0
20260906175815 79 317 1.7 4.3 0.00 0.00 0.00 56 1021.1
20260906175401 87 82 2.6 4.3 0.00 0.00 0.00 67 1021.0
20260906175350 86 11 0.0 3.5 0.00 0.00 0.00 44 1021.0
20260906175329 81 209 0.0 0.0 0.00 0.00 0.00 58 1020.2
20260906175323 79 55 0.9 2.6 0.00 0.00 0.00 72 1020.9
20260906175316 73 216 0.9 1.7 0.00 0.00 0.00 66 1020.9
20260906175313 66 36 6.1 18.2 0.10 2.75 0.00 74 1012.8
20260906174901 88 85 2.6 4.3 0.00 0.00 0.00 66 1020.8
20260906174853 87 9 0.0 0.0 0.00 0.00 0.00 43 1020.9
20260906174836 83 99 0.0 0.0 0.00 0.00 0.00 73 1017.7
20260906174830 81 209 0.0 0.0 0.00 0.00 0.00 58 1020.1
20260906174826 79 55 0.9 2.6 0.00 0.00 0.00 72 1020.9
20260906174817 72 21 9.6 20.9 0.11 2.75 0.00 67 1018.6
20260906174815 81 314 2.6 4.3 0.00 0.00 0.00 53 1020.9
20260906174401 88 90 2.6 2.6 0.00 0.00 0.00 65 1020.9
20260906174350 87 13 0.0 0.9 0.00 0.00 0.00 43 1020.8
20260906174329 81 209 0.0 0.0 0.00 0.00 0.00 58 1020.1
20260906174326 73 216 0.0 1.7 0.00 0.00 0.00 65 1020.9
20260906174323 79 55 0.9 2.6 0.00 0.00 0.00 72 1020.8
20260906174320 78 69 12.2 21.7 0.12 2.75 0.00 62 1023.6
20260906174315 82 164 3.5 1.7 0.00 0.00 0.00 51 1020.8
20260906173904 88 79 1.7 3.5 0.00 0.00 0.00 64 1020.8
20260906173856 87 44 0.0 2.6 0.00 0.00 0.00 43 1020.7
20260906173832 82 209 0.0 0.9 0.00 0.00 0.00 58 1020.0
20260906173822 73 217 1.7 2.6 0.00 0.00 0.00 64 1020.9
20260906173817 79 55 1.7 2.6 0.00 0.00 0.00 71 1020.8
20260906173815 82 164 0.9 3.5 0.00 0.00 0.00 49 1020.8
20260906173401 89 80 1.7 3.5 0.00 0.00 0.00 63 1020.9
20260906173350 87 46 2.6 4.3 0.00 0.00 0.00 43 1020.7
20260906173338 82 209 0.0 0.9 0.00 0.00 0.00 57 1020.0
20260906173330 84 99 0.0 0.0 0.00 0.00 0.00 71 1017.6
20260906173325 74 181 0.9 1.7 0.00 0.00 0.00 63 1020.9
20260906173320 78 72 12.2 20.9 0.10 2.75 0.00 61 1023.9
20260906173315 82 271 0.0 1.7 0.00 0.00 0.00 51 1020.8
20260906172904 89 63 1.7 4.3 0.00 0.00 0.00 62 1020.8
20260906172856 87 311 0.0 0.0 0.00 0.00 0.00 43 1020.6
20260906172829 83 209 0.0 0.9 0.00 0.00 0.00 56 1019.9
20260906172820 79 55 1.7 2.6 0.00 0.00 0.00 70 1020.7
20260906172818 83 269 0.0 3.5 0.00 0.00 0.00 49 1020.7
20260906172816 74 181 0.0 1.7 0.00 0.00 0.00 62 1020.9
20260906172814 73 25 9.6 18.2 0.10 2.75 0.00 67 1019.1
20260906172401 89 67 1.7 2.6 0.00 0.00 0.00 61 1020.7
20260906172350 87 346 0.0 3.5 0.00 0.00 0.00 42 1020.7
20260906172329 84 209 0.0 0.0 0.00 0.00 0.00 55 1019.9
20260906172325 74 181 1.7 1.7 0.00 0.00 0.00 61 1020.9
20260906172320 79 55 1.7 2.6 0.00 0.00 0.00 70 1020.7
20260906172318 83 256 3.5 3.5 0.00 0.00 0.00 46 1020.7
20260906171901 90 101 2.6 3.5 0.00 0.00 0.00 60 1020.7
20260906171850 88 25 3.5 7.0 0.00 0.00 0.00 42 1020.5
20260906171836 85 99 0.0 0.0 0.00 0.00 0.00 69 1017.6
20260906171829 84 209 0.0 1.7 0.00 0.00 0.00 54 1019.9
20260906171823 74 108 0.9 1.7 0.00 0.00 0.00 61 1020.9
20260906171821 79 55 1.7 3.5 0.00 0.00 0.00 68 1020.7
20260906171817 61 76 4.3 13.0 0.12 2.75 0.00 78 1008.7
20260906171401 90 98 0.9 5.2 0.00 0.00 0.00 60 1020.7
20260906171350 88 64 0.0 0.0 0.00 0.00 0.00 42 1020.5
20260906171329 85 209 0.0 1.7 0.00 0.00 0.00 52 1019.8
20260906171320 60 89 3.5 13.9 0.11 2.75 0.00 79 1007.4
20260906171317 79 55 2.6 3.5 0.00 0.00 0.00 68 1020.6
20260906171315 84 126 0.0 6.1 0.00 0.00 0.00 45 1020.5
20260906170907 90 96 2.6 5.2 0.00 0.00 0.00 60 1020.7
20260906170853 88 78 0.0 0.0 0.00 0.00 0.00 42 1020.4
20260906170835 86 209 0.9 2.6 0.00 0.00 0.00 51 1019.8
20260906170820 63 65 5.2 16.5 0.10 2.75 0.00 77 1009.8
20260906170817 79 55 3.5 3.5 0.00 0.00 0.00 68 1020.6
20260906170815 84 122 1.7 8.7 0.00 0.00 0.00 45 1020.5
20260906170404 90 108 2.6 6.1 0.00 0.00 0.00 59 1020.7
20260906170356 88 55 0.0 0.0 0.00 0.00 0.00 42 1020.3
20260906170330 85 99 0.0 0.0 0.00 0.00 0.00 67 1017.4
20260906170318 84 134 4.3 8.7 0.00 0.00 0.00 45 1020.4
20260906170316 75 200 0.0 1.7 0.00 0.00 0.00 59 1020.8
20260906165904 90 104 2.6 6.1 0.00 0.00 0.00 59 1020.6
20260906165856 88 37 0.0 6.1 0.00 0.00 0.00 41 1020.3
20260906165829 87 209 1.7 6.1 0.00 0.00 0.00 47 1019.7
20260906165824 79 55 1.7 3.5 0.00 0.00 0.00 69 1020.6
20260906165822 75 200 0.9 1.7 0.00 0.00 0.00 59 1020.7
20260906165815 84 128 4.3 8.7 0.00 0.00 0.00 45 1020.4
20260906165401 91 70 2.6 5.2 0.00 0.00 0.00 59 1020.6
20260906165356 89 26 0.0 0.9 0.00 0.00 0.00 41 1020.2
20260906165329 88 220 4.3 6.1 0.00 0.00 0.00 47 1019.6
20260906165320 85 76 3.5 11.3 0.00 0.00 0.00 44 1020.4
20260906165317 79 55 2.6 3.5 0.00 0.00 0.00 70 1020.6
20260906165314 79 82 12.2 21.7 0.12 2.75 0.00 60 1024.8
20260906164907 91 109 0.9 7.0 0.00 0.00 0.00 59 1020.7
20260906164850 89 28 0.0 0.0 0.00 0.00 0.00 40 1020.2
20260906164839 85 99 0.0 0.0 0.00 0.00 0.00 65 1017.5
20260906164832 88 208 3.5 7.0 0.00 0.00 0.00 47 1019.5
20260906164825 85 159 10.4 11.3 0.00 0.00 0.00 44 1020.3
20260906164821 80 9 1.7 4.3 0.00 0.00 0.00 70 1020.6
20260906164817 75 131 0.9 1.7 0.00 0.00 0.00 58 1020.7
20260906164401 91 119 2.6 6.1 0.00 0.00 0.00 59 1020.6
20260906164356 89 37 0.0 0.0 0.00 0.00 0.00 40 1020.1
20260906164332 88 214 3.5 6.1 0.00 0.00 0.00 46 1019.4
20260906164318 80 63 3.5 4.3 0.00 0.00 0.00 69 1020.6
20260906164316 85 142 7.8 13.0 0.00 0.00 0.00 44 1020.3
20260906163901 91 102 3.5 6.1 0.00 0.00 0.00 59 1020.6
20260906163850 90 32 0.0 0.0 0.00 0.00 0.00 40 1020.0
20260906163838 88 202 1.7 6.1 0.00 0.00 0.00 47 1019.4
20260906163823 80 63 2.6 4.3 0.00 0.00 0.00 67 1020.6
20260906163819 85 99 7.0 13.0 0.00 0.00 0.00 44 1020.3
20260906163814 70 2 8.7 17.4 0.11 2.75 0.00 69 1016.7
20260906163404 91 61 3.5 7.0 0.00 0.00 0.00 58 1020.5
20260906163350 90 49 0.0 0.0 0.00 0.00 0.00 39 1020.0
20260906163333 86 99 0.0 0.0 0.00 0.00 0.00 65 1017.5
20260906163329 88 231 5.2 7.0 0.00 0.00 0.00 47 1019.3
20260906163326 80 63 1.7 4.3 0.00 0.00 0.00 65 1020.7
20260906163324 86 107 7.0 9.6 0.00 0.00 0.00 43 1020.3
20260906163317 76 111 0.0 2.6 0.00 0.00 0.00 57 1020.6
20260906163314 64 52 5.2 13.9 0.12 2.75 0.00 75 1011.1
20260906162904 91 102 3.5 6.1 0.00 0.00 0.00 58 1020.6
20260906162850 90 59 0.0 0.0 0.00 0.00 0.00 39 1019.9
20260906162832 87 185 0.9 7.8 0.00 0.00 0.00 47 1019.3
20260906162821 86 169 9.6 9.6 0.00 0.00 0.00 44 1020.2
20260906162404 92 111 7.0 7.8 0.00 0.00 0.00 58 1020.5
20260906162353 90 46 0.0 0.0 0.00 0.00 0.00 39 1020.0
20260906162338 88 245 1.7 3.5 0.00 0.00 0.00 48 1019.3
20260906162317 80 63 3.5 3.5 0.00 0.00 0.00 65 1020.5
20260906162315 86 105 7.8 11.3 0.00 0.00 0.00 43 1020.2
20260906161904 92 103 2.6 5.2 0.00 0.00 0.00 58 1020.5
20260906161850 91 28 0.0 0.0 0.00 0.00 0.00 38 1019.8
20260906161833 86 87 0.0 0.0 0.00 0.00 0.00 66 1017.5
20260906161829 88 234 2.6 6.1 0.00 0.00 0.00 48 1019.3
20260906161826 76 138 1.7 3.5 0.00 0.00 0.00 56 1020.5
20260906161823 81 63 2.6 4.3 0.00 0.00 0.00 63 1020.5
20260906161818 86 141 7.0 9.6 0.00 0.00 0.00 43 1020.2
20260906161401 92 129 0.9 6.1 0.00 0.00 0.00 58 1020.6
20260906161353 92 37 0.0 5.2 0.00 0.00 0.00 37 1019.9
20260906161338 89 232 0.9 5.2 0.00 0.00 0.00 49 1019.2
20260906161318 86 132 6.1 13.0 0.00 0.00 0.00 43 1020.2
20260906160901 91 166 3.5 5.2 0.00 0.00 0.00 58 1020.6
20260906160853 93 58 0.0 4.3 0.00 0.00 0.00 36 1019.9
20260906160829 90 235 2.6 5.2 0.00 0.00 0.00 46 1019.2
20260906160824 86 152 7.0 8.7 0.00 0.00 0.00 42 1020.1
20260906160820 81 63 4.3 5.2 0.00 0.00 0.00 65 1020.4
20260906160817 77 119 1.7 5.2 0.00 0.00 0.00 56 1020.4
20260906160410 91 109 3.5 6.1 0.00 0.00 0.00 58 1020.6
20260906160353 93 24 2.6 4.3 0.00 0.00 0.00 37 1019.9
20260906160333 87 81 0.0 0.0 0.00 0.00 0.00 64 1017.4
20260906160329 91 237 1.7 3.5 0.00 0.00 0.00 46 1019.2
20260906160321 87 115 7.0 9.6 0.00 0.00 0.00 42 1020.1
20260906160318 81 67 3.5 5.2 0.00 0.00 0.00 66 1020.4
20260906155901 91 175 0.9 6.1 0.00 0.00 0.00 58 1020.6
20260906155850 93 131 0.0 2.6 0.00 0.00 0.00 35 1019.9
20260906155835 92 237 1.7 4.3 0.00 0.00 0.00 45 1019.2
20260906155826 80 71 3.5 5.2 0.00 0.00 0.00 67 1020.4
20260906155818 87 142 0.9 11.3 0.00 0.00 0.00 42 1020.2
20260906155814 79 79 12.2 20.9 0.10 2.75 0.00 61 1024.5
20260906155401 92 90 1.7 7.0 0.00 0.00 0.00 58 1020.6
20260906155353 93 24 0.0 7.8 0.00 0.00 0.00 35 1019.8
20260906155329 93 233 1.7 4.3 0.00 0.00 0.00 44 1019.2
20260906155320 80 60 4.3 7.0 0.00 0.00 0.00 68 1020.4
20260906155315 87 140 6.1 11.3 0.00 0.00 0.00 42 1020.1
20260906154901 92 96 6.1 7.0 0.00 0.00 0.00 58 1020.5
20260906154850 93 128 0.0 8.7 0.00 0.00 0.00 35 1019.9
20260906154836 93 229 1.7 7.0 0.00 0.00 0.00 43 1019.1
20260906154830 87 90 0.0 0.0 0.00 0.00 0.00 61 1017.4
20260906154821 87 161 4.3 10.4 0.00 0.00 0.00 42 1020.1
20260906154817 77 109 1.7 3.5 0.00 0.00 0.00 54 1020.4
20260906154814 68 21 7.0 15.6 0.11 2.75 0.00 72 1014.3
20260906154401 92 123 2.6 7.8 0.00 0.00 0.00 58 1020.5
20260906154350 94 119 0.9 8.7 0.00 0.00 0.00 35 1019.8
20260906154335 93 228 3.5 7.0 0.00 0.00 0.00 43 1019.1
20260906154320 78 107 1.7 5.2 0.00 0.00 0.00 54 1020.4
20260906154317 62 69 4.3 13.0 0.12 2.75 0.00 77 1009.4
20260906153901 92 108 0.9 7.0 0.00 0.00 0.00 58 1020.6
20260906153853 94 136 0.0 0.0 0.00 0.00 0.00 33 1019.7
20260906153835 93 229 2.6 12.2 0.00 0.00 0.00 42 1019.1
20260906153823 80 48 5.2 7.8 0.00 0.00 0.00 68 1020.4
20260906153817 78 101 2.6 7.0 0.00 0.00 0.00 54 1020.3
20260906153815 87 157 2.6 16.5 0.00 0.00 0.00 41 1020.1
20260906153404 92 90 2.6 7.0 0.00 0.00 0.00 58 1020.6
20260906153353 95 169 0.0 0.0 0.00 0.00 0.00 33 1019.7
20260906153333 87 96 0.0 0.0 0.00 0.00 0.00 59 1017.5
20260906153329 94 221 7.8 9.6 0.00 0.00 0.00 40 1019.0
20260906153323 78 232 0.9 3.5 0.00 0.00 0.00 54 1020.3
20260906153321 87 103 10.4 10.4 0.00 0.00 0.00 41 1020.1
20260906153318 81 57 6.1 7.8 0.00 0.00 0.00 66 1020.4
20260906153314 62 72 4.3 15.6 0.10 2.75 0.00 78 1009.1
20260906152901 92 92 3.5 10.4 0.00 0.00 0.00 58 1020.6
20260906152850 95 224 0.0 7.0 0.00 0.00 0.00 33 1019.7
20260906152829 94 238 6.1 9.6 0.00 0.00 0.00 40 1019.0
20260906152820 81 58 4.3 7.8 0.00 0.00 0.00 65 1020.4
20260906152818 88 165 8.7 10.4 0.00 0.00 0.00 41 1020.0
20260906152401 92 113 7.0 10.4 0.00 0.00 0.00 57 1020.7
20260906152350 95 186 0.0 7.8 0.00 0.00 0.00 33 1019.7
20260906152335 94 241 6.1 8.7 0.00 0.00 0.00 39 1019.0
20260906152320 81 59 5.2 5.2 0.00 0.00 0.00 67 1020.4
20260906152317 74 32 9.6 20.9 0.12 2.75 0.00 66 1019.7
20260906151904 92 78 3.5 7.0 0.00 0.00 0.00 59 1020.7
20260906151853 95 194 5.2 8.7 0.00 0.00 0.00 32 1019.7
20260906151838 94 245 7.0 9.6 0.00 0.00 0.00 38 1019.0
20260906151833 87 100 0.0 0.0 0.00 0.00 0.00 57 1017.6
20260906151823 81 52 4.3 7.0 0.00 0.00 0.00 66 1020.4
20260906151820 79 76 12.2 21.7 0.12 2.75 0.00 61 1024.2
20260906151818 87 152 3.5 11.3 0.00 0.00 0.00 41 1020.1
20260906151404 92 105 5.2 7.8 0.00 0.00 0.00 59 1020.8
20260906151353 94 234 0.0 2.6 0.00 0.00 0.00 33 1019.8
20260906151335 94 248 4.3 11.3 0.00 0.00 0.00 39 1019.0
20260906151324 82 61 2.6 7.0 0.00 0.00 0.00 64 1020.4
20260906151317 80 89 13.0 21.7 0.11 2.75 0.00 60 1025.6
20260906151315 88 80 8.7 12.2 0.00 0.00 0.00 40 1020.0
20260906150904 92 96 3.5 6.1 0.00 0.00 0.00 58 1020.7
20260906150850 94 170 0.0 8.7 0.00 0.00 0.00 34 1019.7
20260906150836 94 238 3.5 8.7 0.00 0.00 0.00 38 1019.0
20260906150823 78 105 2.6 7.0 0.00 0.00 0.00 52 1020.3
20260906150821 88 137 0.0 10.4 0.00 0.00 0.00 42 1020.0
20260906150817 77 65 11.3 20.0 0.10 2.75 0.00 62 1023.1
20260906150401 92 105 3.5 7.8 0.00 0.00 0.00 58 1020.7
20260906150350 94 159 0.0 10.4 0.00 0.00 0.00 34 1019.7
20260906150335 88 87 0.0 0.0 0.00 0.00 0.00 59 1017.6
20260906150329 94 222 9.6 10.4 0.00 0.00 0.00 38 1018.9
20260906150324 78 114 0.9 5.2 0.00 0.00 0.00 52 1020.4
20260906150320 72 14 8.7 17.4 0.11 2.75 0.00 68 1017.9
20260906150318 88 142 4.3 9.6 0.00 0.00 0.00 40 1020.1
20260906145904 92 109 3.5 7.0 0.00 0.00 0.00 59 1020.8
20260906145850 94 161 3.5 7.0 0.00 0.00 0.00 36 1019.8
20260906145829 95 221 7.8 7.8 0.00 0.00 0.00 38 1019.0
20260906145820 81 28 3.5 7.8 0.00 0.00 0.00 63 1020.4
20260906145818 78 111 2.6 6.1 0.00 0.00 0.00 52 1020.4
20260906145815 88 109 6.1 8.7 0.00 0.00 0.00 40 1020.1
20260906145404 92 65 4.3 5.2 0.00 0.00 0.00 59 1020.8
20260906145353 93 85 3.5 9.6 0.00 0.00 0.00 33 1019.8
20260906145329 95 214 0.9 7.0 0.00 0.00 0.00 39 1019.0
20260906145320 61 82 4.3 13.0 0.12 2.75 0.00 79 1008.1
20260906145318 88 98 5.2 10.4 0.00 0.00 0.00 40 1020.0
20260906144901 92 58 5.2 8.7 0.00 0.00 0.00 59 1020.7
20260906144850 94 64 0.0 0.0 0.00 0.00 0.00 35 1019.8
20260906144833 88 93 0.0 0.0 0.00 0.00 0.00 58 1017.6
20260906144829 95 237 1.7 7.8 0.00 0.00 0.00 39 1019.0
20260906144817 81 18 3.5 8.7 0.00 0.00 0.00 67 1020.5
20260906144815 88 120 7.0 10.4 0.00 0.00 0.00 40 1020.1
20260906144407 92 115 0.0 8.7 0.00 0.00 0.00 59 1020.8
20260906144353 94 270 0.0 0.9 0.00 0.00 0.00 35 1019.8
20260906144329 95 249 2.6 8.7 0.00 0.00 0.00 38 1019.0
20260906144320 81 45 6.1 9.6 0.00 0.00 0.00 65 1020.4
20260906144317 64 56 5.2 16.5 0.10 2.75 0.00 76 1010.7
20260906144315 88 176 7.8 13.0 0.00 0.00 0.00 40 1020.2
20260906143901 92 131 1.7 6.1 0.00 0.00 0.00 58 1020.8
20260906143850 94 321 0.0 7.0 0.00 0.00 0.00 35 1019.7
20260906143838 95 217 2.6 6.1 0.00 0.00 0.00 39 1019.0
20260906143818 79 98 3.5 7.0 0.00 0.00 0.00 51 1020.4
20260906143814 70 2 7.8 20.0 0.11 2.75 0.00 70 1016.2
20260906143401 92 104 2.6 8.7 0.00 0.00 0.00 58 1020.8
20260906143350 94 293 7.0 10.4 0.00 0.00 0.00 33 1019.8
20260906143336 88 98 0.0 0.0 0.00 0.00 0.00 63 1017.6
20260906143332 95 216 3.5 8.7 0.00 0.00 0.00 39 1019.0
20260906143323 79 110 0.9 7.8 0.00 0.00 0.00 51 1020.4
20260906143319 89 136 11.3 11.3 0.00 0.00 0.00 39 1020.1
20260906143317 81 53 6.1 7.8 0.00 0.00 0.00 63 1020.4
20260906143314 76 52 11.3 21.7 0.12 2.75 0.00 64 1021.8
20260906142904 92 99 5.2 7.0 0.00 0.00 0.00 58 1020.9
20260906142853 94 317 0.0 8.7 0.00 0.00 0.00 32 1019.8
20260906142832 94 233 2.6 7.0 0.00 0.00 0.00 40 1019.0
20260906142823 79 52 3.5 7.0 0.00 0.00 0.00 51 1020.4
20260906142817 81 54 4.3 8.7 0.00 0.00 0.00 66 1020.4
20260906142815 88 182 3.5 9.6 0.00 0.00 0.00 41 1020.1
20260906142404 92 199 1.7 4.3 0.00 0.00 0.00 58 1020.8
20260906142353 94 325 5.2 9.6 0.00 0.00 0.00 32 1019.8
20260906142332 94 212 1.7 9.6 0.00 0.00 0.00 38 1019.0
20260906142326 79 113 3.5 7.0 0.00 0.00 0.00 51 1020.4
20260906142320 82 40 3.5 8.7 0.00 0.00 0.00 66 1020.5
20260906142317 79 84 13.0 21.7 0.10 2.75 0.00 60 1025.0
20260906142315 88 153 7.8 9.6 0.00 0.00 0.00 40 1020.1
20260906141901 92 174 2.6 7.8 0.00 0.00 0.00 58 1020.9
20260906141850 94 313 0.0 9.6 0.00 0.00 0.00 33 1019.8
20260906141833 89 151 0.0 0.0 0.00 0.00 0.00 62 1017.6
20260906141829 94 191 2.6 9.6 0.00 0.00 0.00 38 1019.0
20260906141821 88 148 7.8 11.3 0.00 0.00 0.00 39 1020.1
20260906141817 81 32 3.5 8.7 0.00 0.00 0.00 65 1020.4
20260906141401 92 126 2.6 5.2 0.00 0.00 0.00 58 1021.0
20260906141356 94 342 0.0 7.0 0.00 0.00 0.00 32 1019.9
20260906141335 94 210 3.5 8.7 0.00 0.00 0.00 39 1019.0
20260906141317 81 53 4.3 11.3 0.00 0.00 0.00 70 1020.3
20260906141315 89 137 7.0 11.3 0.00 0.00 0.00 40 1020.0
20260906140904 91 131 1.7 7.0 0.00 0.00 0.00 59 1021.0
20260906140850 94 294 0.0 8.7 0.00 0.00 0.00 31 1019.9
20260906140829 94 249 7.0 9.6 0.00 0.00 0.00 37 1019.1
20260906140821 79 92 3.5 8.7 0.00 0.00 0.00 51 1020.4
20260906140818 81 64 7.8 9.6 0.00 0.00 0.00 67 1020.3
20260906140401 91 127 3.5 7.8 0.00 0.00 0.00 59 1021.1
20260906140353 94 306 0.0 7.8 0.00 0.00 0.00 31 1019.9
20260906140333 89 99 0.0 0.0 0.00 0.00 0.00 59 1017.5
20260906140326 81 83 7.8 10.4 0.00 0.00 0.00 68 1020.3
20260906140317 79 121 4.3 6.1 0.00 0.00 0.00 51 1020.3
20260906140315 89 171 5.2 10.4 0.00 0.00 0.00 40 1020.2
20260906135901 91 86 3.5 7.8 0.00 0.00 0.00 59 1021.1
20260906135859 94 327 5.2 10.4 0.00 0.00 0.00 31 1020.0
20260906135832 94 263 2.6 10.4 0.00 0.00 0.00 39 1019.0
20260906135820 82 67 8.7 10.4 0.00 0.00 0.00 67 1020.3
20260906135817 79 111 1.7 5.2 0.00 0.00 0.00 51 1020.4
20260906135815 89 173 6.1 13.0 0.00 0.00 0.00 41 1020.0
20260906135401 91 113 3.5 7.8 0.00 0.00 0.00 60 1021.1
20260906135356 94 319 0.0 11.3 0.00 0.00 0.00 32 1020.0
20260906135332 95 254 8.7 8.7 0.00 0.00 0.00 39 1019.0
20260906135326 82 53 8.7 9.6 0.00 0.00 0.00 68 1020.3
20260906135320 66 36 6.1 18.2 0.10 2.75 0.00 74 1012.8
20260906135317 89 147 4.3 10.4 0.00 0.00 0.00 40 1020.0
20260906134904 91 124 3.5 7.8 0.00 0.00 0.00 59 1021.2
20260906134850 94 307 0.0 7.0 0.00 0.00 0.00 30 1020.1
20260906134833 89 98 0.0 0.0 0.00 0.00 0.00 57 1017.6
20260906134829 95 241 2.6 11.3 0.00 0.00 0.00 40 1019.0
20260906134824 80 142 5.2 7.0 0.00 0.00 0.00 50 1020.3
20260906134820 82 42 5.2 10.4 0.00 0.00 0.00 68 1020.3
20260906134817 72 21 9.6 20.9 0.11 2.75 0.00 67 1018.6
20260906134815 89 129 6.1 12.2 0.00 0.00 0.00 39 1020.1
20260906134407 91 72 1.7 6.1 0.00 0.00 0.00 60 1021.3
20260906134359 94 275 1.7 5.2 0.00 0.00 0.00 30 1020.2
20260906134329 95 241 4.3 8.7 0.00 0.00 0.00 40 1019.0
20260906134320 80 133 0.0 7.0 0.00 0.00 0.00 49 1020.4
20260906134318 89 165 5.2 9.6 0.00 0.00 0.00 40 1020.1
20260906133901 91 119 3.5 6.1 0.00 0.00 0.00 60 1021.4
20260906133850 94 285 0.0 4.3 0.00 0.00 0.00 31 1020.2
20260906133832 95 240 4.3 10.4 0.00 0.00 0.00 38 1019.1
20260906133821 89 114 9.6 15.6 0.00 0.00 0.00 39 1020.1
20260906133818 79 111 6.1 8.7 0.00 0.00 0.00 51 1020.4
20260906133814 80 89 13.0 21.7 0.11 2.75 0.00 60 1025.6
20260906133404 91 57 3.5 7.8 0.00 0.00 0.00 60 1021.3
20260906133350 93 327 0.0 0.0 0.00 0.00 0.00 30 1020.2
20260906133333 90 94 0.0 0.0 0.00 0.00 0.00 56 1017.7
20260906133329 95 214 4.3 10.4 0.00 0.00 0.00 39 1019.1
20260906133318 82 69 7.8 11.3 0.00 0.00 0.00 68 1020.3
20260906132901 91 86 3.5 8.7 0.00 0.00 0.00 61 1021.3
20260906132856 94 5 0.0 6.1 0.00 0.00 0.00 30 1020.2
20260906132829 94 222 1.7 6.1 0.00 0.00 0.00 40 1019.1
20260906132818 90 129 7.8 12.2 0.00 0.00 0.00 40 1020.1
20260906132814 73 25 9.6 18.2 0.10 2.75 0.00 67 1019.1
20260906132407 91 94 0.9 6.1 0.00 0.00 0.00 61 1021.3
20260906132353 94 183 0.0 3.5 0.00 0.00 0.00 30 1020.3
20260906132332 94 241 2.6 7.0 0.00 0.00 0.00 39 1019.1
20260906132323 82 62 7.8 10.4 0.00 0.00 0.00 67 1020.4
20260906132320 79 125 1.7 8.7 0.00 0.00 0.00 51 1020.3
20260906132318 66 32 7.0 15.6 0.12 2.75 0.00 73 1013.2
20260906132315 89 162 4.3 9.6 0.00 0.00 0.00 39 1020.0
20260906131907 91 76 4.3 7.0 0.00 0.00 0.00 62 1021.4
20260906131850 93 130 0.0 0.0 0.00 0.00 0.00 31 1020.4
20260906131832 94 219 4.3 8.7 0.00 0.00 0.00 38 1019.1
20260906131817 81 47 9.6 12.2 0.00 0.00 0.00 71 1020.4
20260906131815 89 161 4.3 12.2 0.00 0.00 0.00 40 1020.1
20260906131401 91 130 1.7 6.1 0.00 0.00 0.00 61 1021.3
20260906131350 92 206 0.0 0.9 0.00 0.00 0.00 31 1020.3
20260906131332 94 228 4.3 8.7 0.00 0.00 0.00 37 1019.1
20260906131320 60 89 3.5 13.9 0.11 2.75 0.00 79 1007.4
20260906131317 79 119 1.7 10.4 0.00 0.00 0.00 50 1020.3
20260906131315 88 129 3.5 16.5 0.00 0.00 0.00 40 1020.0
20260906130907 90 142 2.6 7.8 0.00 0.00 0.00 62 1021.4
20260906130853 93 130 0.0 5.2 0.00 0.00 0.00 31 1020.4
20260906130829 94 200 6.1 7.8 0.00 0.00 0.00 37 1019.1
20260906130822 81 46 7.8 11.3 0.00 0.00 0.00 70 1020.4
20260906130820 80 117 3.5 9.6 0.00 0.00 0.00 49 1020.3
20260906130815 90 158 4.3 11.3 0.00 0.00 0.00 38 1020.1
20260906130401 90 131 1.7 6.1 0.00 0.00 0.00 63 1021.5
20260906130353 93 156 0.9 5.2 0.00 0.00 0.00 31 1020.4
20260906130335 94 266 5.2 8.7 0.00 0.00 0.00 37 1019.2
20260906130331 90 94 0.0 0.0 0.00 0.00 0.00 57 1017.7
20260906130323 81 58 6.1 11.3 0.00 0.00 0.00 70 1020.5
20260906130318 80 73 1.7 8.7 0.00 0.00 0.00 50 1020.2
20260906130315 89 185 3.5 12.2 0.00 0.00 0.00 40 1020.2
20260906125907 90 99 2.6 4.3 0.00 0.00 0.00 64 1021.5
20260906125853 92 291 0.0 0.0 0.00 0.00 0.00 32 1020.5
20260906125830 94 231 2.6 7.8 0.00 0.00 0.00 38 1019.2
20260906125823 80 136 1.7 8.7 0.00 0.00 0.00 49 1020.4
20260906125817 81 56 6.1 10.4 0.00 0.00 0.00 69 1020.5
20260906125815 90 168 8.7 11.3 0.00 0.00 0.00 39 1020.2
20260906125401 90 111 0.9 6.1 0.00 0.00 0.00 63 1021.6
20260906125353 92 333 0.0 0.0 0.00 0.00 0.00 35 1020.6
20260906125335 94 236 1.7 6.1 0.00 0.00 0.00 38 1019.3
20260906125321 90 178 3.5 8.7 0.00 0.00 0.00 39 1020.3
20260906125317 81 44 9.6 11.3 0.00 0.00 0.00 70 1020.5
20260906124907 90 90 5.2 5.2 0.00 0.00 0.00 63 1021.5
20260906124853 92 333 0.0 0.0 0.00 0.00 0.00 32 1020.7
20260906124836 90 100 0.0 0.0 0.00 0.00 0.00 58 1017.8
20260906124829 94 249 2.6 7.0 0.00 0.00 0.00 38 1019.3
20260906124822 81 54 8.7 12.2 0.00 0.00 0.00 69 1020.5
20260906124820 80 112 6.1 9.6 0.00 0.00 0.00 49 1020.3
20260906124815 90 159 1.7 13.0 0.00 0.00 0.00 39 1020.3
20260906124404 90 69 7.0 7.0 0.00 0.00 0.00 64 1021.6
20260906124353 92 287 0.0 0.0 0.00 0.00 0.00 32 1020.7
20260906124329 93 266 0.9 5.2 0.00 0.00 0.00 37 1019.3
20260906124317 80 121 3.5 9.6 0.00 0.00 0.00 49 1020.3
20260906124315 90 115 7.8 11.3 0.00 0.00 0.00 38 1020.2
20260906123901 89 85 8.7 8.7 0.00 0.00 0.00 64 1021.6
20260906123850 91 247 0.0 0.9 0.00 0.00 0.00 33 1020.8
20260906123835 93 250 3.5 7.0 0.00 0.00 0.00 37 1019.4
20260906123824 90 130 4.3 9.6 0.00 0.00 0.00 39 1020.2
20260906123821 80 158 7.8 7.8 0.00 0.00 0.00 50 1020.3
20260906123814 70 2 8.7 17.4 0.11 2.75 0.00 69 1016.7
20260906123404 90 118 3.5 7.8 0.00 0.00 0.00 64 1021.7
20260906123359 91 5 0.0 0.0 0.00 0.00 0.00 36 1020.8
20260906123330 93 74 0.0 0.0 0.00 0.00 0.00 53 1017.7
20260906123320 81 40 7.8 10.4 0.00 0.00 0.00 70 1020.6
20260906123317 80 115 3.5 8.7 0.00 0.00 0.00 49 1020.4
20260906123315 90 155 6.1 12.2 0.00 0.00 0.00 39 1020.3
20260906122901 89 68 1.7 6.1 0.00 0.00 0.00 65 1021.7
20260906122853 91 23 0.0 0.9 0.00 0.00 0.00 34 1020.8
20260906122832 93 243 1.7 7.8 0.00 0.00 0.00 40 1019.5
20260906122823 81 49 6.1 11.3 0.00 0.00 0.00 72 1020.7
20260906122818 90 129 4.3 10.4 0.00 0.00 0.00 40 1020.3
20260906122814 60 86 3.5 12.2 0.12 2.75 0.00 79 1007.7
20260906122404 89 88 2.6 7.0 0.00 0.00 0.00 64 1021.6
20260906122353 90 340 0.0 0.0 0.00 0.00 0.00 35 1020.9
20260906122329 93 260 3.5 5.2 0.00 0.00 0.00 38 1019.6
20260906122323 80 51 7.8 13.9 0.00 0.00 0.00 70 1020.7
20260906122319 80 119 3.5 9.6 0.00 0.00 0.00 48 1020.3
20260906122317 61 84 3.5 14.8 0.10 2.75 0.00 79 1007.9
20260906122315 90 150 5.2 9.6 0.00 0.00 0.00 39 1020.3
20260906121901 89 113 6.1 7.8 0.00 0.00 0.00 64 1021.7
20260906121853 89 249 0.0 1.7 0.00 0.00 0.00 34 1020.9
20260906121832 92 200 3.5 3.5 0.00 0.00 0.00 39 1019.7
20260906121817 80 40 4.3 9.6 0.00 0.00 0.00 49 1020.3
20260906121815 89 177 5.2 12.2 0.00 0.00 0.00 40 1020.3
20260906121404 89 123 1.7 7.0 0.00 0.00 0.00 64 1021.8
20260906121350 89 78 0.9 2.6 0.00 0.00 0.00 35 1021.0
20260906121335 92 348 0.0 1.7 0.00 0.00 0.00 38 1019.7
20260906121326 80 101 3.5 8.7 0.00 0.00 0.00 49 1020.3
20260906121321 89 142 8.7 13.0 0.00 0.00 0.00 41 1020.3
20260906121318 71 9 8.7 20.0 0.11 2.75 0.00 68 1017.4
20260906120904 89 127 3.5 6.1 0.00 0.00 0.00 65 1021.8
20260906120850 89 0 0.0 0.9 0.00 0.00 0.00 36 1021.2
20260906120835 92 348 0.9 2.6 0.00 0.00 0.00 42 1019.8
20260906120820 80 93 7.8 9.6 0.00 0.00 0.00 50 1020.3
20260906120818 81 36 8.7 13.0 0.00 0.00 0.00 72 1020.6
20260906120815 89 110 5.2 12.2 0.00 0.00 0.00 40 1020.2
20260906120404 88 126 0.9 6.1 0.00 0.00 0.00 66 1021.8
20260906120353 89 271 0.0 0.0 0.00 0.00 0.00 35 1021.2
20260906120334 92 9 0.0 0.0 0.00 0.00 0.00 53 1017.8
20260906120329 91 348 1.7 3.5 0.00 0.00 0.00 40 1019.8
20260906120318 81 59 8.7 11.3 0.00 0.00 0.00 71 1020.5
20260906120314 80 88 13.0 21.7 0.11 2.75 0.00 60 1025.5
20260906115901 89 90 3.5 7.0 0.00 0.00 0.00 66 1021.9
20260906115856 89 312 0.0 3.5 0.00 0.00 0.00 36 1021.2
20260906115829 91 338 0.9 3.5 0.00 0.00 0.00 42 1019.8
20260906115820 81 37 5.2 8.7 0.00 0.00 0.00 49 1020.1
20260906115818 89 151 2.6 10.4 0.00 0.00 0.00 40 1020.2
20260906115814 79 79 12.2 20.9 0.10 2.75 0.00 61 1024.5
20260906115401 88 165 4.3 7.0 0.00 0.00 0.00 67 1021.8
20260906115353 89 321 0.0 0.0 0.00 0.00 0.00 36 1021.3
20260906115338 91 306 0.9 1.7 0.00 0.00 0.00 44 1019.9
20260906115323 80 13 7.0 13.0 0.00 0.00 0.00 74 1020.6
20260906115320 74 36 10.4 19.1 0.10 2.75 0.00 65 1020.2
20260906115315 89 188 2.6 8.7 0.00 0.00 0.00 40 1020.2
20260906114901 88 103 5.2 7.8 0.00 0.00 0.00 66 1021.7
20260906114853 89 290 0.0 3.5 0.00 0.00 0.00 36 1021.3
20260906114837 91 32 0.0 0.0 0.00 0.00 0.00 57 1017.8
20260906114829 91 306 0.0 3.5 0.00 0.00 0.00 44 1019.9
20260906114824 88 145 4.3 9.6 0.00 0.00 0.00 41 1020.3
20260906114820 80 45 8.7 14.8 0.00 0.00 0.00 73 1020.6
20260906114817 80 57 4.3 11.3 0.00 0.00 0.00 50 1020.1
20260906114401 88 111 3.5 9.6 0.00 0.00 0.00 66 1021.8
20260906114350 88 330 0.0 5.2 0.00 0.00 0.00 36 1021.3
20260906114329 90 274 0.9 2.6 0.00 0.00 0.00 42 1019.9
20260906114322 80 108 2.6 7.8 0.00 0.00 0.00 51 1020.1
20260906114318 80 57 9.6 13.9 0.00 0.00 0.00 70 1020.6
20260906114315 88 169 0.9 13.0 0.00 0.00 0.00 41 1020.2
20260906113910 88 105 6.1 7.0 0.00 0.00 0.00 66 1021.9
20260906113850 88 331 0.0 4.3 0.00 0.00 0.00 36 1021.4
20260906113838 90 276 2.6 3.5 0.00 0.00 0.00 42 1019.9
20260906113826 80 55 7.8 13.9 0.00 0.00 0.00 71 1020.5
20260906113824 88 169 10.4 12.2 0.00 0.00 0.00 42 1020.2
20260906113817 80 112 5.2 8.7 0.00 0.00 0.00 50 1020.1
20260906113814 60 89 3.5 13.0 0.11 2.75 0.00 79 1007.3
20260906113401 88 92 2.6 7.8 0.00 0.00 0.00 66 1022.0
20260906113350 88 321 0.9 3.5 0.00 0.00 0.00 36 1021.3
20260906113335 90 348 0.9 2.6 0.00 0.00 0.00 44 1020.0
20260906113323 81 63 11.3 13.0 0.00 0.00 0.00 71 1020.5
20260906113320 62 72 4.3 15.6 0.10 2.75 0.00 78 1009.1
20260906113317 80 42 5.2 10.4 0.00 0.00 0.00 50 1020.1
20260906113315 88 173 7.0 9.6 0.00 0.00 0.00 42 1020.3
20260906112901 88 104 2.6 7.8 0.00 0.00 0.00 66 1022.0
20260906112859 88 12 0.0 0.9 0.00 0.00 0.00 36 1021.4
20260906112832 90 341 1.7 2.6 0.00 0.00 0.00 42 1020.0
20260906112820 67 25 7.0 18.2 0.10 2.75 0.00 72 1013.9
20260906112817 81 53 8.7 14.8 0.00 0.00 0.00 72 1020.5
20260906112815 88 118 5.2 7.8 0.00 0.00 0.00 44 1020.2
20260906112401 88 136 7.8 7.8 0.00 0.00 0.00 66 1022.0
20260906112350 88 0 0.0 3.5 0.00 0.00 0.00 37 1021.5
20260906112329 90 29 0.0 2.6 0.00 0.00 0.00 42 1020.1
20260906112320 81 71 13.0 13.9 0.00 0.00 0.00 70 1020.5
20260906112317 80 157 4.3 9.6 0.00 0.00 0.00 50 1020.1
20260906112315 88 84 1.7 6.1 0.00 0.00 0.00 42 1020.3
20260906111904 87 109 2.6 7.8 0.00 0.00 0.00 66 1022.0
20260906111853 87 73 0.0 3.5 0.00 0.00 0.00 36 1021.5
20260906111834 89 102 0.0 0.0 0.00 0.00 0.00 58 1018.0
20260906111832 89 49 0.0 2.6 0.00 0.00 0.00 39 1020.2
20260906111823 80 52 13.0 14.8 0.00 0.00 0.00 72 1020.4
20260906111817 79 76 12.2 21.7 0.12 2.75 0.00 61 1024.2
20260906111815 87 189 3.5 6.1 0.00 0.00 0.00 45 1020.3
20260906111404 88 105 3.5 7.0 0.00 0.00 0.00 67 1022.1
20260906111350 87 324 3.5 4.3 0.00 0.00 0.00 36 1021.4
20260906111338 89 16 1.7 4.3 0.00 0.00 0.00 40 1020.2
20260906111324 86 144 4.3 7.8 0.00 0.00 0.00 46 1020.4
20260906111320 81 26 7.8 15.6 0.00 0.00 0.00 71 1020.4
20260906111317 80 67 2.6 9.6 0.00 0.00 0.00 50 1020.1
20260906111314 80 89 13.0 21.7 0.11 2.75 0.00 60 1025.6
20260906110901 87 96 2.6 7.8 0.00 0.00 0.00 69 1022.1
20260906110850 87 9 0.0 7.0 0.00 0.00 0.00 36 1021.5
20260906110832 89 39 0.0 4.3 0.00 0.00 0.00 43 1020.2
20260906110817 80 31 3.5 7.0 0.00 0.00 0.00 52 1020.0
20260906110815 86 158 5.2 7.0 0.00 0.00 0.00 47 1020.3
20260906110401 87 50 3.5 8.7 0.00 0.00 0.00 68 1022.1
20260906110350 87 46 0.9 7.0 0.00 0.00 0.00 35 1021.5
20260906110332 89 324 2.6 2.6 0.00 0.00 0.00 41 1020.2
20260906110327 81 55 10.4 12.2 0.00 0.00 0.00 70 1020.5
20260906110318 86 67 0.0 5.2 0.00 0.00 0.00 48 1020.4
20260906105907 87 110 7.0 10.4 0.00 0.00 0.00 69 1022.1
20260906105853 87 331 1.7 3.5 0.00 0.00 0.00 36 1021.5
20260906105829 88 326 0.9 3.5 0.00 0.00 0.00 42 1020.2
20260906105820 79 11 4.3 8.7 0.00 0.00 0.00 52 1020.0
20260906105817 65 42 6.1 14.8 0.12 2.75 0.00 74 1012.1
20260906105815 86 109 3.5 4.3 0.00 0.00 0.00 47 1020.3
20260906105404 86 140 0.9 6.1 0.00 0.00 0.00 70 1022.1
20260906105350 86 301 3.5 5.2 0.00 0.00 0.00 38 1021.6
20260906105335 88 46 2.6 4.3 0.00 0.00 0.00 47 1020.3
20260906105317 81 29 9.6 12.2 0.00 0.00 0.00 71 1020.5
20260906105315 87 140 2.6 5.2 0.00 0.00 0.00 48 1020.4
20260906104904 87 97 1.7 8.7 0.00 0.00 0.00 69 1022.1
20260906104850 86 44 5.2 7.0 0.00 0.00 0.00 37 1021.6
20260906104835 87 273 1.7 3.5 0.00 0.00 0.00 41 1020.3
20260906104831 88 85 0.0 0.0 0.00 0.00 0.00 62 1018.2
20260906104821 79 42 5.2 13.0 0.00 0.00 0.00 51 1020.0
20260906104818 85 98 0.0 1.7 0.00 0.00 0.00 49 1020.5
20260906104814 60 87 3.5 13.9 0.10 2.75 0.00 79 1007.6
20260906104407 87 113 2.6 7.0 0.00 0.00 0.00 69 1022.2
20260906104350 85 343 4.3 5.2 0.00 0.00 0.00 38 1021.7
20260906104335 87 77 0.0 5.2 0.00 0.00 0.00 40 1020.4
20260906104321 85 92 1.7 4.3 0.00 0.00 0.00 48 1020.6
20260906104317 81 67 11.3 13.0 0.00 0.00 0.00 69 1020.5
20260906103901 86 61 3.5 5.2 0.00 0.00 0.00 70 1022.2
20260906103850 86 350 0.0 6.1 0.00 0.00 0.00 37 1021.8
20260906103832 87 27 0.0 4.3 0.00 0.00 0.00 42 1020.4
20260906103823 79 100 2.6 11.3 0.00 0.00 0.00 51 1020.0
20260906103818 85 51 0.0 2.6 0.00 0.00 0.00 50 1020.6
20260906103814 70 2 7.8 20.0 0.11 2.75 0.00 70 1016.2
20260906103404 86 117 5.2 8.7 0.00 0.00 0.00 69 1022.3
20260906103350 85 312 0.0 7.8 0.00 0.00 0.00 37 1021.8
20260906103338 87 36 3.5 4.3 0.00 0.00 0.00 42 1020.4
20260906103334 86 84 0.0 0.0 0.00 0.00 0.00 61 1018.3
20260906103324 85 28 0.0 7.0 0.00 0.00 0.00 49 1020.6
20260906103320 81 34 9.6 12.2 0.00 0.00 0.00 66 1020.6
20260906103317 79 92 5.2 9.6 0.00 0.00 0.00 51 1020.0
20260906102907 86 128 6.1 7.8 0.00 0.00 0.00 71 1022.3
20260906102856 85 5 0.0 7.8 0.00 0.00 0.00 38 1021.9
20260906102832 79 88 4.3 11.3 0.00 0.00 0.00 51 1020.1
20260906102829 87 288 1.7 4.3 0.00 0.00 0.00 41 1020.5
20260906102820 80 86 13.0 21.7 0.12 2.75 0.00 60 1025.2
20260906102818 84 292 0.0 1.7 0.00 0.00 0.00 51 1020.6
20260906102401 86 70 4.3 8.7 0.00 0.00 0.00 71 1022.3
20260906102350 84 315 0.0 7.0 0.00 0.00 0.00 39 1021.9
20260906102329 87 54 0.0 7.0 0.00 0.00 0.00 42 1020.6
20260906102318 80 71 2.6 9.6 0.00 0.00 0.00 50 1020.1
20260906102314 79 84 13.0 21.7 0.10 2.75 0.00 60 1025.0
20260906101907 86 148 5.2 7.0 0.00 0.00 0.00 71 1022.4
20260906101850 84 15 0.0 7.8 0.00 0.00 0.00 38 1022.0
20260906101831 86 83 0.0 0.0 0.00 0.00 0.00 62 1018.5
20260906101829 86 24 0.9 4.3 0.00 0.00 0.00 45 1020.6
20260906101817 75 47 10.4 19.1 0.10 2.75 0.00 64 1021.3
20260906101815 83 84 0.9 2.6 0.00 0.00 0.00 50 1020.8
20260906101401 85 72 2.6 7.8 0.00 0.00 0.00 71 1022.4
20260906101350 84 63 0.0 5.2 0.00 0.00 0.00 39 1022.0
20260906101329 86 358 0.0 6.1 0.00 0.00 0.00 45 1020.8
20260906101322 81 26 5.2 12.2 0.00 0.00 0.00 68 1020.6
20260906101315 69 9 7.8 16.5 0.11 2.75 0.00 71 1015.6
20260906100901 79 58 7.8 9.6 0.00 0.00 0.00 52 1020.1
20260906100853 84 295 0.9 7.8 0.00 0.00 0.00 39 1022.1
20260906100835 86 59 1.7 4.3 0.00 0.00 0.00 45 1020.8
20260906100821 83 57 0.9 3.5 0.00 0.00 0.00 50 1020.9
20260906100817 81 49 6.1 13.0 0.00 0.00 0.00 70 1020.5
20260906100815 63 61 5.2 13.9 0.12 2.75 0.00 76 1010.2
20260906100401 85 88 0.9 8.7 0.00 0.00 0.00 72 1022.4
20260906100351 79 50 2.6 9.6 0.00 0.00 0.00 53 1020.2
20260906100334 83 83 0.0 0.0 0.00 0.00 0.00 69 1018.6
20260906100329 86 23 2.6 4.3 0.00 0.00 0.00 46 1020.9
20260906100320 81 34 5.2 12.2 0.00 0.00 0.00 69 1020.5
20260906100317 60 88 3.5 13.0 0.11 2.75 0.00 79 1007.5
20260906095901 85 134 2.6 8.7 0.00 0.00 0.00 71 1022.5
20260906095854 83 0 0.0 4.3 0.00 0.00 0.00 40 1022.3
20260906095832 85 17 1.7 6.1 0.00 0.00 0.00 46 1021.1
20260906095817 82 65 7.0 14.8 0.00 0.00 0.00 69 1020.6
20260906095815 83 168 3.5 4.3 0.00 0.00 0.00 50 1021.0
20260906095408 78 55 2.6 9.6 0.00 0.00 0.00 55 1020.1
20260906095401 85 54 1.7 7.0 0.00 0.00 0.00 72 1022.6
20260906095353 83 303 1.7 1.7 0.00 0.00 0.00 40 1022.4
20260906095335 85 24 0.0 5.2 0.00 0.00 0.00 46 1021.2
20260906095322 82 73 7.0 11.3 0.00 0.00 0.00 66 1020.6
20260906095318 66 36 6.1 18.2 0.10 2.75 0.00 74 1012.8
20260906095315 81 118 0.0 4.3 0.00 0.00 0.00 52 1021.1
20260906094913 85 52 3.5 6.1 0.00 0.00 0.00 73 1022.5
20260906094853 82 300 0.0 7.0 0.00 0.00 0.00 41 1022.5
20260906094840 80 82 0.0 0.0 0.00 0.00 0.00 74 1018.6
20260906094835 83 13 6.1 13.0 0.00 0.00 0.00 65 1020.6
20260906094829 84 344 1.7 7.8 0.00 0.00 0.00 46 1021.3
20260906094821 72 21 9.6 20.9 0.11 2.75 0.00 67 1018.6
20260906094812 81 112 1.7 4.3 0.00 0.00 0.00 52 1021.3
20260906094401 85 140 4.3 7.0 0.00 0.00 0.00 73 1022.5
20260906094354 77 81 1.7 9.6 0.00 0.00 0.00 55 1020.2
20260906094350 82 336 0.0 8.7 0.00 0.00 0.00 41 1022.7
20260906094329 84 64 4.3 7.8 0.00 0.00 0.00 45 1021.3
20260906094318 78 69 12.2 21.7 0.12 2.75 0.00 62 1023.6
20260906094315 80 65 2.6 5.2 0.00 0.00 0.00 54 1021.3
20260906093901 84 78 2.6 9.6 0.00 0.00 0.00 74 1022.6
20260906093850 77 29 7.8 12.2 0.00 0.00 0.00 55 1020.2
20260906093835 84 78 7.0 7.0 0.00 0.00 0.00 46 1021.4
20260906093818 83 40 8.7 9.6 0.00 0.00 0.00 65 1020.6
20260906093815 80 89 13.0 21.7 0.11 2.75 0.00 60 1025.6
20260906093812 80 169 0.0 4.3 0.00 0.00 0.00 55 1021.4
20260906093401 84 93 2.6 7.0 0.00 0.00 0.00 73 1022.6
20260906093359 77 65 7.0 12.2 0.00 0.00 0.00 54 1020.3
20260906093356 81 0 0.0 7.8 0.00 0.00 0.00 41 1022.8
20260906093334 79 43 0.0 0.0 0.00 0.00 0.00 78 1018.7
20260906093329 83 339 3.5 7.8 0.00 0.00 0.00 47 1021.4
20260906093320 83 44 7.8 10.4 0.00 0.00 0.00 64 1020.5
20260906093315 78 73 12.2 20.9 0.10 2.75 0.00 61 1023.9
20260906093313 80 72 3.5 5.2 0.00 0.00 0.00 55 1021.6
20260906092907 84 63 4.3 7.0 0.00 0.00 0.00 74 1022.6
20260906092851 77 46 4.3 10.4 0.00 0.00 0.00 55 1020.3
20260906092832 83 358 2.6 9.6 0.00 0.00 0.00 46 1021.5
20260906092820 83 13 7.0 13.0 0.00 0.00 0.00 61 1020.6
20260906092818 73 25 9.6 18.2 0.10 2.75 0.00 67 1019.1
20260906092812 80 93 0.0 4.3 0.00 0.00 0.00 54 1021.7
20260906092401 84 49 3.5 7.0 0.00 0.00 0.00 74 1022.5
20260906092356 77 71 2.6 10.4 0.00 0.00 0.00 55 1020.3
20260906092350 81 33 0.0 7.8 0.00 0.00 0.00 41 1022.9
20260906092329 83 324 0.9 7.8 0.00 0.00 0.00 47 1021.5
20260906092318 83 15 7.0 13.0 0.00 0.00 0.00 63 1020.5
20260906092315 66 31 7.0 15.6 0.12 2.75 0.00 73 1013.2
20260906092312 80 107 0.9 5.2 0.00 0.00 0.00 54 1021.6
20260906091907 84 63 1.7 8.7 0.00 0.00 0.00 73 1022.6
20260906091850 81 5 0.0 8.7 0.00 0.00 0.00 43 1022.9
20260906091831 78 43 0.0 0.0 0.00 0.00 0.00 81 1018.8
20260906091829 82 327 3.5 6.1 0.00 0.00 0.00 48 1021.6
20260906091823 83 17 4.3 9.6 0.00 0.00 0.00 64 1020.5
20260906091818 80 317 2.6 3.5 0.00 0.00 0.00 56 1021.8
20260906091815 61 76 4.3 13.0 0.12 2.75 0.00 78 1008.7
20260906091407 84 58 8.7 8.7 0.00 0.00 0.00 72 1022.6
20260906091350 76 81 6.1 8.7 0.00 0.00 0.00 57 1020.4
20260906091329 82 11 1.7 7.0 0.00 0.00 0.00 49 1021.7
20260906091320 83 40 5.2 9.6 0.00 0.00 0.00 63 1020.4
20260906091315 60 89 3.5 13.9 0.11 2.75 0.00 79 1007.4
20260906091309 79 83 2.6 2.6 0.00 0.00 0.00 58 1021.7
20260906090901 83 108 5.2 7.8 0.00 0.00 0.00 72 1022.6
20260906090853 76 39 3.5 12.2 0.00 0.00 0.00 57 1020.4
20260906090850 80 304 0.0 11.3 0.00 0.00 0.00 43 1023.2
20260906090832 81 353 3.5 6.1 0.00 0.00 0.00 50 1021.8
20260906090823 82 61 4.3 9.6 0.00 0.00 0.00 65 1020.5
20260906090818 63 65 5.2 16.5 0.10 2.75 0.00 77 1009.8
20260906090812 79 77 0.9 6.1 0.00 0.00 0.00 56 1021.8
20260906090401 83 93 2.6 7.8 0.00 0.00 0.00 72 1022.6
20260906090350 76 62 5.2 10.4 0.00 0.00 0.00 57 1020.4
20260906090337 77 108 0.0 0.0 0.00 0.00 0.00 84 1018.8
20260906090329 81 358 0.9 7.0 0.00 0.00 0.00 48 1021.8
20260906090320 83 28 3.5 8.7 0.00 0.00 0.00 64 1020.4
20260906090316 79 59 2.6 5.2 0.00 0.00 0.00 57 1021.8
20260906085904 83 118 3.5 7.8 0.00 0.00 0.00 72 1022.6
20260906085853 76 29 4.3 12.2 0.00 0.00 0.00 57 1020.3
20260906085850 80 355 5.2 8.7 0.00 0.00 0.00 45 1023.2
20260906085832 81 58 2.6 7.8 0.00 0.00 0.00 50 1021.8
20260906085820 82 9 3.5 8.7 0.00 0.00 0.00 65 1020.5
20260906085818 75 42 10.4 20.9 0.12 2.75 0.00 65 1020.8
20260906085809 79 94 0.0 2.6 0.00 0.00 0.00 58 1021.8
20260906085404 83 114 2.6 7.8 0.00 0.00 0.00 71 1022.6
20260906085351 76 51 7.8 13.0 0.00 0.00 0.00 57 1020.4
20260906085335 81 17 3.5 8.7 0.00 0.00 0.00 50 1021.8
20260906085325 83 34 5.2 8.7 0.00 0.00 0.00 63 1020.4
20260906085315 79 82 12.2 21.7 0.12 2.75 0.00 60 1024.8
20260906085309 78 14 0.0 4.3 0.00 0.00 0.00 58 1021.9
20260906084907 83 75 3.5 7.8 0.00 0.00 0.00 72 1022.6
20260906084859 79 0 5.2 10.4 0.00 0.00 0.00 46 1023.2
20260906084853 75 46 8.7 12.2 0.00 0.00 0.00 58 1020.3
20260906084834 76 106 0.0 0.0 0.00 0.00 0.00 87 1018.7
20260906084832 81 42 6.1 7.8 0.00 0.00 0.00 52 1021.9
20260906084818 80 87 13.0 21.7 0.10 2.75 0.00 60 1025.4
20260906084815 78 149 2.6 2.6 0.00 0.00 0.00 59 1022.0
20260906084404 82 111 2.6 7.0 0.00 0.00 0.00 71 1022.5
20260906084351 76 53 7.8 12.2 0.00 0.00 0.00 58 1020.3
20260906084329 80 324 2.6 9.6 0.00 0.00 0.00 50 1021.8
20260906084323 82 38 7.8 8.7 0.00 0.00 0.00 64 1020.4
20260906084318 76 56 11.3 20.0 0.10 2.75 0.00 63 1022.2
20260906084312 77 60 0.0 4.3 0.00 0.00 0.00 60 1022.0
20260906083901 82 96 5.2 7.0 0.00 0.00 0.00 71 1022.5
20260906083859 76 53 4.3 11.3 0.00 0.00 0.00 58 1020.2
20260906083850 79 5 7.0 10.4 0.00 0.00 0.00 45 1023.3
20260906083829 80 6 6.1 6.1 0.00 0.00 0.00 51 1021.9
20260906083817 82 37 3.5 10.4 0.00 0.00 0.00 65 1020.3
20260906083815 70 2 8.7 17.4 0.11 2.75 0.00 69 1016.7
20260906083809 77 102 1.7 4.3 0.00 0.00 0.00 61 1022.0
20260906083401 82 83 0.9 7.8 0.00 0.00 0.00 71 1022.4
20260906083350 76 33 7.8 12.2 0.00 0.00 0.00 57 1020.2
20260906083335 80 27 1.7 6.1 0.00 0.00 0.00 52 1021.9
20260906083331 75 106 0.0 0.0 0.00 0.00 0.00 88 1018.7
20260906083320 82 42 8.7 10.4 0.00 0.00 0.00 65 1020.3
20260906083315 77 50 0.0 3.5 0.00 0.00 0.00 62 1022.0
20260906082904 82 88 7.8 8.7 0.00 0.00 0.00 71 1022.5
20260906082850 76 18 6.1 8.7 0.00 0.00 0.00 58 1020.0
20260906082829 79 353 4.3 7.0 0.00 0.00 0.00 51 1022.0
20260906082826 82 19 4.3 8.7 0.00 0.00 0.00 63 1020.3
20260906082815 60 86 3.5 12.2 0.12 2.75 0.00 79 1007.7
20260906082812 77 5 0.9 3.5 0.00 0.00 0.00 61 1022.1
20260906082404 82 103 3.5 7.8 0.00 0.00 0.00 72 1022.4
20260906082354 75 39 3.5 12.2 0.00 0.00 0.00 59 1020.1
20260906082329 79 353 4.3 7.0 0.00 0.00 0.00 53 1022.0
20260906082317 83 0 7.0 10.4 0.00 0.00 0.00 63 1020.2
20260906082315 76 60 2.6 3.5 0.00 0.00 0.00 61 1022.1
20260906081904 82 113 5.2 7.0 0.00 0.00 0.00 71 1022.4
20260906081854 75 11 13.0 13.0 0.00 0.00 0.00 59 1020.1
20260906081834 74 106 0.0 0.0 0.00 0.00 0.00 89 1018.7
20260906081832 79 27 2.6 7.0 0.00 0.00 0.00 53 1022.1
20260906081824 82 34 4.3 10.4 0.00 0.00 0.00 62 1020.2
20260906081821 65 47 6.1 17.4 0.10 2.75 0.00 75 1011.7
20260906081815 76 103 0.0 0.0 0.00 0.00 0.00 60 1022.1
20260906081408 81 148 2.6 7.8 0.00 0.00 0.00 71 1022.5
20260906081353 78 335 0.0 12.2 0.00 0.00 0.00 47 1023.4
20260906081350 75 80 7.0 14.8 0.00 0.00 0.00 60 1020.2
20260906081329 78 50 3.5 5.2 0.00 0.00 0.00 53 1022.0
20260906081317 83 48 2.6 7.8 0.00 0.00 0.00 60 1020.2
20260906081315 71 9 8.7 20.0 0.11 2.75 0.00 68 1017.4
20260906081309 76 12 0.0 0.0 0.00 0.00 0.00 61 1022.1
20260906080907 81 143 3.5 7.8 0.00 0.00 0.00 72 1022.4
20260906080900 74 34 9.6 12.2 0.00 0.00 0.00 61 1020.1
20260906080850 77 106 0.0 9.6 0.00 0.00 0.00 49 1023.4
20260906080829 78 358 1.7 6.1 0.00 0.00 0.00 53 1022.0
20260906080818 83 36 4.3 7.8 0.00 0.00 0.00 60 1020.2
20260906080809 76 115 0.0 2.6 0.00 0.00 0.00 60 1022.1
20260906080407 81 101 3.5 7.8 0.00 0.00 0.00 71 1022.4
20260906080353 76 0 1.7 12.2 0.00 0.00 0.00 48 1023.5
20260906080332 78 13 1.7 9.6 0.00 0.00 0.00 54 1022.0
20260906080317 83 49 5.2 7.0 0.00 0.00 0.00 59 1020.1
20260906080315 76 24 0.0 2.6 0.00 0.00 0.00 63 1022.1
20260906075907 80 78 4.3 7.8 0.00 0.00 0.00 71 1022.3
20260906075856 74 37 8.7 13.0 0.00 0.00 0.00 62 1020.1
20260906075850 76 9 9.6 10.4 0.00 0.00 0.00 49 1023.5
20260906075829 78 45 4.3 9.6 0.00 0.00 0.00 52 1022.1
20260906075817 83 22 5.2 7.8 0.00 0.00 0.00 56 1020.1
20260906075815 79 79 12.2 20.9 0.10 2.75 0.00 61 1024.5
20260906075809 75 112 0.9 3.5 0.00 0.00 0.00 61 1022.2
20260906075401 80 111 2.6 7.0 0.00 0.00 0.00 71 1022.4
20260906075351 74 53 5.2 13.9 0.00 0.00 0.00 63 1020.1
20260906075332 78 358 0.9 7.0 0.00 0.00 0.00 54 1022.1
20260906075317 83 321 1.7 8.7 0.00 0.00 0.00 56 1020.1
20260906075315 74 36 10.4 19.1 0.10 2.75 0.00 65 1020.2
20260906075310 75 174 0.0 4.3 0.00 0.00 0.00 64 1022.1
20260906074901 80 44 1.7 7.8 0.00 0.00 0.00 71 1022.3
20260906074853 75 329 0.0 10.4 0.00 0.00 0.00 51 1023.4
20260906074851 73 61 5.2 13.9 0.00 0.00 0.00 63 1020.0
20260906074832 77 46 0.9 7.8 0.00 0.00 0.00 55 1022.2
20260906074824 68 21 7.0 15.6 0.11 2.75 0.00 72 1014.3
20260906074818 74 130 0.0 3.5 0.00 0.00 0.00 62 1022.2
20260906074410 80 120 1.7 7.0 0.00 0.00 0.00 71 1022.2
20260906074357 74 46 6.1 15.6 0.00 0.00 0.00 62 1020.0
20260906074329 77 353 1.7 4.3 0.00 0.00 0.00 56 1022.1
20260906074326 84 287 1.7 4.3 0.00 0.00 0.00 52 1020.0
20260906074321 62 69 4.3 13.0 0.12 2.75 0.00 77 1009.4
20260906074312 74 135 0.9 4.3 0.00 0.00 0.00 65 1022.1
20260906073901 80 108 5.2 7.8 0.00 0.00 0.00 71 1022.3
20260906073853 74 44 0.0 10.4 0.00 0.00 0.00 52 1023.5
20260906073835 76 31 0.9 7.0 0.00 0.00 0.00 55 1022.2
20260906073823 85 70 0.9 3.5 0.00 0.00 0.00 51 1020.0
20260906073818 60 89 3.5 13.0 0.11 2.75 0.00 79 1007.3
20260906073812 74 109 2.6 6.1 0.00 0.00 0.00 65 1022.1
20260906073404 80 75 3.5 6.1 0.00 0.00 0.00 71 1022.2
20260906073356 73 11 9.6 11.3 0.00 0.00 0.00 52 1023.4
20260906073354 74 74 8.7 12.2 0.00 0.00 0.00 62 1019.9
20260906073340 73 106 0.0 0.0 0.00 0.00 0.00 91 1018.5
20260906073329 76 348 4.3 6.1 0.00 0.00 0.00 55 1022.2
20260906073317 85 339 2.6 6.1 0.00 0.00 0.00 50 1020.0
20260906073315 73 119 3.5 3.5 0.00 0.00 0.00 66 1022.1
20260906072904 80 107 1.7 5.2 0.00 0.00 0.00 72 1022.2
20260906072854 74 19 9.6 13.9 0.00 0.00 0.00 61 1019.8
20260906072850 73 25 1.7 11.3 0.00 0.00 0.00 53 1023.4
20260906072829 76 2 1.7 7.8 0.00 0.00 0.00 55 1022.1
20260906072821 67 25 7.0 18.2 0.10 2.75 0.00 72 1013.9
20260906072817 85 71 2.6 2.6 0.00 0.00 0.00 50 1019.9
20260906072812 73 65 0.0 0.0 0.00 0.00 0.00 67 1022.1
20260906072401 79 61 1.7 6.1 0.00 0.00 0.00 74 1022.2
20260906072353 73 28 7.0 8.7 0.00 0.00 0.00 53 1023.5
20260906072351 74 351 7.0 13.0 0.00 0.00 0.00 61 1019.9
20260906072330 76 65 2.6 6.1 0.00 0.00 0.00 57 1022.1
20260906072323 85 30 1.7 3.5 0.00 0.00 0.00 50 1019.9
20260906072318 74 32 9.6 20.9 0.12 2.75 0.00 66 1019.7
20260906072309 73 123 0.0 0.0 0.00 0.00 0.00 68 1022.1
20260906071904 79 109 6.1 6.1 0.00 0.00 0.00 73 1022.2
20260906071856 73 28 9.6 13.9 0.00 0.00 0.00 61 1019.9
20260906071850 73 327 0.0 11.3 0.00 0.00 0.00 53 1023.5
20260906071834 72 106 0.0 0.0 0.00 0.00 0.00 90 1018.3
20260906071829 75 2 6.1 6.1 0.00 0.00 0.00 57 1022.1
20260906071824 79 76 12.2 21.7 0.12 2.75 0.00 61 1024.2
20260906071818 84 279 0.9 3.5 0.00 0.00 0.00 50 1019.8
20260906071815 72 125 0.0 0.0 0.00 0.00 0.00 70 1022.1
20260906071404 79 55 1.7 6.1 0.00 0.00 0.00 73 1022.2
20260906071400 73 48 12.2 12.2 0.00 0.00 0.00 61 1019.9
20260906071350 73 317 2.6 10.4 0.00 0.00 0.00 53 1023.5
20260906071329 75 337 4.3 5.2 0.00 0.00 0.00 57 1022.1
20260906071326 84 77 1.7 4.3 0.00 0.00 0.00 50 1019.8
20260906071321 80 89 13.0 21.7 0.11 2.75 0.00 60 1025.6
20260906071319 72 126 0.0 0.0 0.00 0.00 0.00 74 1022.1
20260906070914 73 11 7.0 14.8 0.00 0.00 0.00 61 1019.8
20260906070907 79 101 1.7 4.3 0.00 0.00 0.00 75 1022.1
20260906070850 72 350 5.2 6.1 0.00 0.00 0.00 53 1023.5
20260906070832 75 26 3.5 6.1 0.00 0.00 0.00 59 1022.2
20260906070819 84 300 0.9 2.6 0.00 0.00 0.00 49 1019.8
20260906070809 71 126 0.0 0.0 0.00 0.00 0.00 74 1022.2
20260906070404 79 106 0.9 5.2 0.00 0.00 0.00 75 1022.1
20260906070351 73 17 11.3 12.2 0.00 0.00 0.00 61 1019.8
20260906070331 72 106 0.0 0.0 0.00 0.00 0.00 90 1018.3
20260906070329 74 6 1.7 7.8 0.00 0.00 0.00 58 1022.1
20260906070320 83 209 0.0 3.5 0.00 0.00 0.00 51 1019.8
20260906070315 72 14 8.7 17.4 0.11 2.75 0.00 68 1017.9
20260906070309 71 127 0.0 0.0 0.00 0.00 0.00 75 1022.2
20260906065907 79 148 2.6 3.5 0.00 0.00 0.00 76 1022.0
20260906065851 73 51 3.5 10.4 0.00 0.00 0.00 62 1019.7
20260906065832 74 13 1.7 7.8 0.00 0.00 0.00 60 1022.0
20260906065823 83 319 1.7 3.5 0.00 0.00 0.00 51 1019.7
20260906065818 65 42 6.1 14.8 0.12 2.75 0.00 74 1012.1
20260906065810 71 136 0.0 0.0 0.00 0.00 0.00 76 1022.2
20260906065401 78 94 3.5 5.2 0.00 0.00 0.00 76 1022.0
20260906065359 72 355 7.0 10.4 0.00 0.00 0.00 54 1023.4
20260906065351 73 28 10.4 12.2 0.00 0.00 0.00 62 1019.6
20260906065332 74 17 3.5 4.3 0.00 0.00 0.00 60 1022.0
20260906065323 82 285 0.9 3.5 0.00 0.00 0.00 51 1019.7
20260906065315 61 82 4.3 13.0 0.12 2.75 0.00 79 1008.1
20260906064901 78 112 3.5 3.5 0.00 0.00 0.00 76 1021.9
20260906064851 73 114 3.5 11.3 0.00 0.00 0.00 63 1019.7
20260906064835 73 19 0.9 6.1 0.00 0.00 0.00 62 1022.0
20260906064831 71 106 0.0 0.0 0.00 0.00 0.00 90 1018.3
20260906064823 81 275 0.9 2.6 0.00 0.00 0.00 52 1019.7
20260906064818 60 87 3.5 13.9 0.11 2.75 0.00 79 1007.6
20260906064809 71 130 0.0 0.0 0.00 0.00 0.00 77 1022.1
20260906064407 78 116 0.9 5.2 0.00 0.00 0.00 78 1021.9
20260906064356 71 21 0.0 9.6 0.00 0.00 0.00 55 1023.3
20260906064354 73 0 5.2 13.9 0.00 0.00 0.00 63 1019.6
20260906064332 72 25 0.9 6.1 0.00 0.00 0.00 63 1022.0
20260906064318 64 56 5.2 16.5 0.10 2.75 0.00 76 1010.7
20260906064310 71 127 0.0 0.0 0.00 0.00 0.00 77 1022.1
20260906063907 78 94 1.7 6.1 0.00 0.00 0.00 78 1021.8
20260906063850 71 36 5.2 11.3 0.00 0.00 0.00 56 1023.5
20260906063829 72 20 0.9 4.3 0.00 0.00 0.00 65 1022.0
20260906063821 81 244 1.7 2.6 0.00 0.00 0.00 51 1019.6
20260906063815 70 2 7.8 20.0 0.11 2.75 0.00 70 1016.2
20260906063809 70 35 0.0 0.0 0.00 0.00 0.00 81 1022.1
20260906063401 77 121 2.6 6.1 0.00 0.00 0.00 80 1021.8
20260906063356 71 36 7.8 12.2 0.00 0.00 0.00 56 1023.4
20260906063351 73 311 7.8 12.2 0.00 0.00 0.00 63 1019.5
20260906063331 71 106 0.0 0.0 0.00 0.00 0.00 90 1018.3
20260906063329 72 348 0.9 4.3 0.00 0.00 0.00 65 1021.9
20260906063321 76 52 11.3 21.7 0.12 2.75 0.00 64 1021.8
20260906063313 69 35 0.0 0.0 0.00 0.00 0.00 81 1022.1
20260906062906 73 28 7.0 10.4 0.00 0.00 0.00 64 1019.5
20260906062901 77 117 0.9 5.2 0.00 0.00 0.00 81 1021.8
20260906062850 71 29 4.3 9.6 0.00 0.00 0.00 56 1023.4
20260906062832 71 296 2.6 3.5 0.00 0.00 0.00 65 1021.9
20260906062820 83 320 0.9 3.5 0.00 0.00 0.00 52 1019.4
20260906062815 80 86 13.0 21.7 0.12 2.75 0.00 60 1025.2
20260906062812 68 35 0.0 0.0 0.00 0.00 0.00 82 1022.0
20260906062401 77 117 2.6 3.5 0.00 0.00 0.00 81 1021.9
20260906062359 71 33 7.0 10.4 0.00 0.00 0.00 56 1023.4
20260906062351 72 17 3.5 13.0 0.00 0.00 0.00 64 1019.4
20260906062329 70 263 1.7 3.5 0.00 0.00 0.00 68 1021.9
20260906062318 79 84 13.0 21.7 0.10 2.75 0.00 60 1025.0
20260906062309 69 35 0.0 0.0 0.00 0.00 0.00 82 1022.0
20260906061901 77 109 1.7 3.5 0.00 0.00 0.00 81 1021.7
20260906061856 71 38 1.7 7.8 0.00 0.00 0.00 56 1023.3
20260906061851 72 350 10.4 13.0 0.00 0.00 0.00 64 1019.3
20260906061837 71 106 0.0 0.0 0.00 0.00 0.00 90 1018.1
20260906061832 69 311 3.5 3.5 0.00 0.00 0.00 70 1021.9
20260906061824 75 47 10.4 19.1 0.10 2.75 0.00 64 1021.3
20260906061820 83 9 1.7 1.7 0.00 0.00 0.00 52 1019.3
20260906061815 68 35 0.0 0.0 0.00 0.00 0.00 83 1021.9
20260906061401 77 127 1.7 2.6 0.00 0.00 0.00 82 1021.8
20260906061351 72 21 4.3 12.2 0.00 0.00 0.00 64 1019.4
20260906061332 68 40 0.0 0.0 0.00 0.00 0.00 73 1021.8
20260906061317 82 15 1.7 3.5 0.00 0.00 0.00 53 1019.3
20260906061315 69 9 7.8 16.5 0.11 2.75 0.00 71 1015.5
20260906061312 68 35 0.0 0.0 0.00 0.00 0.00 82 1021.9
20260906060901 77 153 1.7 3.5 0.00 0.00 0.00 82 1021.7
20260906060856 70 26 0.0 7.8 0.00 0.00 0.00 57 1023.3
20260906060851 72 46 8.7 12.2 0.00 0.00 0.00 65 1019.3
20260906060829 66 60 0.0 0.0 0.00 0.00 0.00 75 1021.7
20260906060821 81 263 0.9 2.6 0.00 0.00 0.00 52 1019.3
20260906060818 68 35 0.0 0.0 0.00 0.00 0.00 85 1021.9
20260906060404 76 113 0.9 1.7 0.00 0.00 0.00 81 1021.7
20260906060355 72 333 7.8 13.9 0.00 0.00 0.00 65 1019.2
20260906060350 70 19 9.6 11.3 0.00 0.00 0.00 57 1023.2
20260906060331 70 106 0.0 0.0 0.00 0.00 0.00 89 1017.8
20260906060329 65 66 0.0 0.0 0.00 0.00 0.00 77 1021.8
20260906060317 80 273 2.6 3.5 0.00 0.00 0.00 52 1019.2
20260906060315 60 88 3.5 13.0 0.11 2.75 0.00 79 1007.4
20260906060309 67 35 0.0 0.0 0.00 0.00 0.00 85 1021.9
20260906055901 76 113 1.7 2.6 0.00 0.00 0.00 81 1021.8
20260906055853 70 22 3.5 10.4 0.00 0.00 0.00 58 1023.1
20260906055851 72 351 2.6 10.4 0.00 0.00 0.00 65 1019.2
20260906055829 65 66 0.0 0.0 0.00 0.00 0.00 78 1021.7
20260906055824 80 290 2.6 2.6 0.00 0.00 0.00 55 1019.3
20260906055821 61 79 4.3 14.8 0.10 2.75 0.00 78 1008.5
20260906055818 66 35 0.0 0.0 0.00 0.00 0.00 86 1021.8
20260906055401 76 113 0.9 2.6 0.00 0.00 0.00 82 1021.5
20260906055351 71 42 5.2 11.3 0.00 0.00 0.00 66 1019.1
20260906055329 65 66 0.0 0.0 0.00 0.00 0.00 77 1021.6
20260906055317 81 302 1.7 2.6 0.00 0.00 0.00 56 1019.1
20260906055315 66 36 6.1 18.2 0.10 2.75 0.00 74 1012.8
20260906054904 75 113 0.9 2.6 0.00 0.00 0.00 82 1021.5
20260906054854 71 351 3.5 11.3 0.00 0.00 0.00 65 1019.0
20260906054832 65 66 0.0 0.0 0.00 0.00 0.00 77 1021.6
20260906054818 81 331 0.9 2.6 0.00 0.00 0.00 59 1019.1
20260906054815 72 21 9.6 20.9 0.11 2.75 0.00 67 1018.6
20260906054812 65 35 0.0 0.0 0.00 0.00 0.00 87 1021.7
20260906054401 75 113 1.7 2.6 0.00 0.00 0.00 83 1021.5
20260906054354 71 0 7.0 12.2 0.00 0.00 0.00 66 1019.0
20260906054350 69 23 7.0 9.6 0.00 0.00 0.00 59 1022.9
20260906054329 65 66 0.0 0.0 0.00 0.00 0.00 78 1021.5
20260906054317 81 32 0.9 3.5 0.00 0.00 0.00 60 1019.0
20260906054315 78 69 12.2 21.7 0.12 2.75 0.00 62 1023.6
20260906053907 75 113 0.0 2.6 0.00 0.00 0.00 83 1021.4
20260906053859 69 45 1.7 9.6 0.00 0.00 0.00 59 1022.8
20260906053851 71 61 7.8 10.4 0.00 0.00 0.00 66 1019.0
20260906053832 64 66 0.0 0.0 0.00 0.00 0.00 79 1021.5
20260906053820 82 5 3.5 3.5 0.00 0.00 0.00 58 1019.1
20260906053815 80 89 13.0 21.7 0.11 2.75 0.00 60 1025.6
20260906053809 65 35 0.0 0.0 0.00 0.00 0.00 88 1021.6
20260906053401 74 113 0.0 1.7 0.00 0.00 0.00 83 1021.4
20260906053356 69 38 7.8 7.8 0.00 0.00 0.00 59 1022.8
20260906053343 70 106 0.0 0.0 0.00 0.00 0.00 89 1017.6
20260906053329 64 66 0.0 0.0 0.00 0.00 0.00 80 1021.4
20260906053327 81 325 2.6 2.6 0.00 0.00 0.00 52 1018.9
20260906053315 78 72 12.2 20.9 0.10 2.75 0.00 61 1023.9
20260906052901 74 113 0.9 1.7 0.00 0.00 0.00 83 1021.3
20260906052856 69 13 7.8 7.8 0.00 0.00 0.00 59 1022.7
20260906052854 70 344 4.3 13.0 0.00 0.00 0.00 67 1018.9
20260906052832 64 66 0.0 0.0 0.00 0.00 0.00 80 1021.4
20260906052818 73 25 9.6 18.2 0.10 2.75 0.00 67 1019.1
20260906052812 64 35 0.0 0.0 0.00 0.00 0.00 88 1021.5
20260906052401 74 113 0.0 1.7 0.00 0.00 0.00 84 1021.2
20260906052351 70 325 7.0 12.2 0.00 0.00 0.00 68 1018.8
20260906052332 64 66 0.0 0.0 0.00 0.00 0.00 80 1021.3
20260906052326 81 325 1.7 2.6 0.00 0.00 0.00 53 1018.9
20260906052315 66 32 7.0 15.6 0.12 2.75 0.00 73 1013.2
20260906052309 64 35 0.0 0.0 0.00 0.00 0.00 88 1021.5
20260906051901 74 113 0.0 2.6 0.00 0.00 0.00 84 1021.2
20260906051854 70 18 7.0 13.0 0.00 0.00 0.00 68 1018.8
20260906051835 70 106 0.0 0.0 0.00 0.00 0.00 89 1017.5
20260906051829 63 66 0.0 0.0 0.00 0.00 0.00 80 1021.2
20260906051817 81 348 2.6 3.5 0.00 0.00 0.00 53 1018.8
20260906051815 61 76 4.3 13.0 0.12 2.75 0.00 78 1008.7
20260906051404 74 113 1.7 2.6 0.00 0.00 0.00 85 1021.3
20260906051354 70 34 1.7 11.3 0.00 0.00 0.00 69 1018.7
20260906051350 69 30 4.3 9.6 0.00 0.00 0.00 59 1022.5
20260906051332 63 66 0.0 0.0 0.00 0.00 0.00 80 1021.2
20260906051318 60 89 3.5 13.9 0.11 2.75 0.00 79 1007.4
20260906051310 64 35 0.0 0.0 0.00 0.00 0.00 88 1021.4
20260906050907 74 94 0.0 1.7 0.00 0.00 0.00 86 1021.2
20260906050857 70 62 3.5 10.4 0.00 0.00 0.00 69 1018.8
20260906050853 69 24 2.6 7.8 0.00 0.00 0.00 59 1022.5
20260906050838 63 66 0.0 0.0 0.00 0.00 0.00 80 1021.3
20260906050826 80 315 1.7 3.5 0.00 0.00 0.00 52 1018.7
20260906050815 63 65 5.2 16.5 0.10 2.75 0.00 77 1009.8
20260906050812 64 35 0.0 0.0 0.00 0.00 0.00 88 1021.4
20260906050401 74 94 0.9 1.7 0.00 0.00 0.00 86 1021.1
20260906050352 70 32 5.2 14.8 0.00 0.00 0.00 70 1018.8
20260906050350 69 16 0.9 8.7 0.00 0.00 0.00 58 1022.5
20260906050337 70 106 0.0 0.0 0.00 0.00 0.00 89 1017.4
20260906050329 63 66 0.0 0.0 0.00 0.00 0.00 81 1021.2
20260906050326 80 309 2.6 3.5 0.00 0.00 0.00 51 1018.7
20260906050315 68 14 7.8 19.1 0.11 2.75 0.00 71 1015.1
20260906050313 64 35 0.0 0.0 0.00 0.00 0.00 88 1021.4
20260906045901 74 94 0.9 1.7 0.00 0.00 0.00 86 1021.0
20260906045853 69 355 0.9 8.7 0.00 0.00 0.00 58 1022.4
20260906045851 70 27 12.2 12.2 0.00 0.00 0.00 70 1018.7
20260906045832 63 66 0.0 0.0 0.00 0.00 0.00 81 1021.1
20260906045817 80 306 1.7 4.3 0.00 0.00 0.00 51 1018.7
20260906045812 64 36 0.0 0.0 0.00 0.00 0.00 89 1021.3
20260906045404 74 94 0.9 2.6 0.00 0.00 0.00 87 1020.9
20260906045356 69 355 0.0 7.0 0.00 0.00 0.00 58 1022.4
20260906045351 70 28 5.2 17.4 0.00 0.00 0.00 70 1018.8
20260906045335 63 66 0.0 0.0 0.00 0.00 0.00 80 1021.1
20260906045320 80 327 1.7 3.5 0.00 0.00 0.00 50 1018.6
20260906045318 79 82 12.2 21.7 0.12 2.75 0.00 60 1024.8
20260906045312 64 36 0.0 0.0 0.00 0.00 0.00 88 1021.2
20260906044904 74 86 0.0 2.6 0.00 0.00 0.00 87 1020.8
20260906044851 70 30 3.5 10.4 0.00 0.00 0.00 70 1018.8
20260906044841 70 106 0.0 0.0 0.00 0.00 0.00 89 1017.3
20260906044832 63 66 0.0 0.0 0.00 0.00 0.00 80 1021.0
20260906044821 80 327 3.5 3.5 0.00 0.00 0.00 50 1018.6
20260906044818 80 87 13.0 21.7 0.10 2.75 0.00 60 1025.4
20260906044809 64 35 0.0 0.0 0.00 0.00 0.00 89 1021.2
20260906044401 74 81 0.9 2.6 0.00 0.00 0.00 88 1020.8
20260906044354 69 11 8.7 12.2 0.00 0.00 0.00 70 1018.7
20260906044350 70 36 0.0 5.2 0.00 0.00 0.00 59 1022.3
20260906044332 63 66 0.0 0.0 0.00 0.00 0.00 80 1021.0
20260906044317 79 310 2.6 2.6 0.00 0.00 0.00 51 1018.6
20260906044315 76 56 11.3 20.0 0.10 2.75 0.00 63 1022.2
20260906044312 64 24 0.0 0.0 0.00 0.00 0.00 89 1021.2
20260906043904 74 74 1.7 3.5 0.00 0.00 0.00 88 1020.7
20260906043859 70 5 0.0 5.2 0.00 0.00 0.00 58 1022.3
20260906043852 69 336 4.3 10.4 0.00 0.00 0.00 70 1018.6
20260906043832 63 66 0.0 0.0 0.00 0.00 0.00 80 1020.9
20260906043827 79 310 1.7 2.6 0.00 0.00 0.00 52 1018.5
20260906043818 70 2 8.7 17.4 0.11 2.75 0.00 69 1016.7
20260906043809 64 22 0.0 0.0 0.00 0.00 0.00 89 1021.2
20260906043407 74 77 0.9 1.7 0.00 0.00 0.00 88 1020.7
20260906043356 70 0 0.0 4.3 0.00 0.00 0.00 58 1022.3
20260906043354 69 323 4.3 9.6 0.00 0.00 0.00 70 1018.6
20260906043335 71 106 0.0 0.0 0.00 0.00 0.00 89 1017.2
20260906043332 63 66 0.0 0.0 0.00 0.00 0.00 80 1020.9
20260906043327 79 310 1.7 2.6 0.00 0.00 0.00 52 1018.5
20260906043321 64 52 5.2 13.9 0.12 2.75 0.00 75 1011.1
20260906043315 64 22 0.0 0.0 0.00 0.00 0.00 89 1021.1
20260906042907 75 77 2.6 2.6 0.00 0.00 0.00 88 1020.6
20260906042853 69 28 0.0 9.6 0.00 0.00 0.00 59 1022.1
20260906042851 69 5 5.2 8.7 0.00 0.00 0.00 71 1018.6
20260906042832 64 66 0.0 0.0 0.00 0.00 0.00 80 1020.9
20260906042823 79 310 0.0 2.6 0.00 0.00 0.00 51 1018.5
20260906042815 60 86 3.5 12.2 0.12 2.75 0.00 79 1007.7
20260906042401 75 82 0.0 2.6 0.00 0.00 0.00 89 1020.6
20260906042351 69 355 1.7 7.0 0.00 0.00 0.00 71 1018.6
20260906042335 64 66 0.0 0.0 0.00 0.00 0.00 80 1020.8
20260906042318 61 84 3.5 14.8 0.10 2.75 0.00 79 1007.9
20260906042312 64 22 0.0 0.0 0.00 0.00 0.00 89 1021.1
20260906041901 75 80 0.9 3.5 0.00 0.00 0.00 89 1020.5
20260906041853 70 24 7.8 10.4 0.00 0.00 0.00 59 1022.1
20260906041851 69 298 6.1 7.8 0.00 0.00 0.00 71 1018.6
20260906041832 71 106 0.0 0.0 0.00 0.00 0.00 89 1017.1
20260906041829 64 66 0.0 0.0 0.00 0.00 0.00 79 1020.8
20260906041818 80 327 1.7 6.1 0.00 0.00 0.00 51 1018.3
20260906041815 65 47 6.1 17.4 0.10 2.75 0.00 75 1011.7
20260906041401 75 94 1.7 3.5 0.00 0.00 0.00 90 1020.5
20260906041351 69 29 2.6 8.7 0.00 0.00 0.00 71 1018.6
20260906041338 64 66 0.0 0.0 0.00 0.00 0.00 80 1020.7
20260906041321 71 9 8.7 20.0 0.11 2.75 0.00 68 1017.4
20260906041317 80 301 2.6 7.8 0.00 0.00 0.00 51 1018.3
20260906041312 64 22 0.0 0.0 0.00 0.00 0.00 88 1021.1
20260906040904 75 82 0.0 3.5 0.00 0.00 0.00 90 1020.4
20260906040854 69 16 4.3 7.8 0.00 0.00 0.00 71 1018.5
20260906040850 70 5 1.7 8.7 0.00 0.00 0.00 59 1021.9
20260906040835 64 66 0.0 0.0 0.00 0.00 0.00 80 1020.6
20260906040823 80 286 2.6 7.0 0.00 0.00 0.00 51 1018.3
20260906040815 77 61 11.3 21.7 0.12 2.75 0.00 63 1022.7
20260906040809 64 22 0.0 0.0 0.00 0.00 0.00 89 1021.1
20260906040404 75 82 0.9 3.5 0.00 0.00 0.00 90 1020.4
20260906040401 69 355 4.3 7.8 0.00 0.00 0.00 71 1018.5
20260906040349 70 355 0.0 6.1 0.00 0.00 0.00 59 1021.9
20260906040338 71 106 0.0 0.0 0.00 0.00 0.00 89 1017.0
20260906040329 64 13 0.0 0.0 0.00 0.00 0.00 81 1020.5
20260906040325 79 267 2.6 6.1 0.00 0.00 0.00 52 1018.2
20260906040318 80 88 13.0 21.7 0.11 2.75 0.00 60 1025.5
20260906040309 65 19 0.0 0.0 0.00 0.00 0.00 88 1021.0
20260906035901 75 76 3.5 3.5 0.00 0.00 0.00 90 1020.4
20260906035853 70 5 0.0 5.2 0.00 0.00 0.00 59 1021.9
20260906035851 69 57 4.3 8.7 0.00 0.00 0.00 71 1018.5
20260906035829 63 13 0.0 0.0 0.00 0.00 0.00 82 1020.5
20260906035821 79 79 12.2 20.9 0.10 2.75 0.00 61 1024.5
20260906035817 79 259 5.2 5.2 0.00 0.00 0.00 52 1018.1
20260906035809 65 18 0.0 0.0 0.00 0.00 0.00 88 1020.9
20260906035404 75 63 1.7 4.3 0.00 0.00 0.00 90 1020.3
20260906035353 70 355 1.7 2.6 0.00 0.00 0.00 59 1022.0
20260906035351 69 5 2.6 7.8 0.00 0.00 0.00 71 1018.4
20260906035332 63 13 0.0 0.0 0.00 0.00 0.00 83 1020.5
20260906035317 79 277 5.2 5.2 0.00 0.00 0.00 52 1018.1
20260906035315 74 36 10.4 19.1 0.10 2.75 0.00 65 1020.2
20260906035312 65 18 0.0 0.0 0.00 0.00 0.00 89 1020.6
20260906034901 75 69 1.7 4.3 0.00 0.00 0.00 90 1020.1
20260906034854 69 313 3.5 9.6 0.00 0.00 0.00 71 1018.4
20260906034832 71 106 0.0 0.0 0.00 0.00 0.00 89 1016.9
20260906034824 68 20 7.0 15.6 0.11 2.75 0.00 72 1014.4
20260906034820 79 254 2.6 4.3 0.00 0.00 0.00 52 1018.1
20260906034809 65 18 0.0 0.0 0.00 0.00 0.00 88 1020.6
20260906034401 75 57 1.7 7.0 0.00 0.00 0.00 90 1020.1
20260906034351 69 345 4.3 8.7 0.00 0.00 0.00 71 1018.3
20260906034332 63 13 0.0 0.0 0.00 0.00 0.00 83 1020.5
20260906034320 79 254 3.5 4.3 0.00 0.00 0.00 51 1018.0
20260906034318 62 69 4.3 13.0 0.12 2.75 0.00 77 1009.4
20260906034309 65 18 0.0 0.0 0.00 0.00 0.00 88 1020.6
20260906033904 75 110 2.6 4.3 0.00 0.00 0.00 90 1020.1
20260906033851 69 13 6.1 12.2 0.00 0.00 0.00 71 1018.4
20260906033849 70 0 0.0 1.7 0.00 0.00 0.00 60 1021.9
20260906033829 64 13 0.0 0.0 0.00 0.00 0.00 83 1020.4
20260906033820 79 254 3.5 4.3 0.00 0.00 0.00 51 1018.0
20260906033818 60 89 3.5 13.0 0.11 2.75 0.00 79 1007.3
20260906033809 65 18 0.0 0.0 0.00 0.00 0.00 89 1020.6
20260906033407 75 77 3.5 3.5 0.00 0.00 0.00 90 1020.1
20260906033353 70 350 1.7 6.1 0.00 0.00 0.00 59 1021.9
20260906033338 71 106 0.0 0.0 0.00 0.00 0.00 89 1017.0
20260906033335 63 13 0.0 0.0 0.00 0.00 0.00 84 1020.4
20260906033320 80 250 3.5 5.2 0.00 0.00 0.00 51 1017.9
20260906033315 62 72 4.3 15.6 0.10 2.75 0.00 78 1009.1
20260906033312 65 19 0.0 0.0 0.00 0.00 0.00 89 1020.5
20260906032901 75 76 1.7 3.5 0.00 0.00 0.00 89 1020.0
20260906032854 69 18 6.1 8.7 0.00 0.00 0.00 72 1018.3
20260906032850 70 0 0.0 7.8 0.00 0.00 0.00 59 1021.9
20260906032829 63 13 0.0 0.0 0.00 0.00 0.00 84 1020.4
20260906032820 80 239 3.5 5.2 0.00 0.00 0.00 51 1017.9
20260906032815 67 25 7.0 18.2 0.10 2.75 0.00 72 1013.9
20260906032812 65 19 0.0 0.0 0.00 0.00 0.00 89 1020.5
20260906032401 75 82 2.6 5.2 0.00 0.00 0.00 89 1020.1
20260906032350 70 34 7.0 7.8 0.00 0.00 0.00 59 1021.8
20260906032329 63 13 0.0 0.0 0.00 0.00 0.00 85 1020.4
20260906032320 80 263 3.5 5.2 0.00 0.00 0.00 51 1017.9
20260906032318 74 31 9.6 20.9 0.12 2.75 0.00 66 1019.7
20260906032313 65 18 0.0 0.0 0.00 0.00 0.00 88 1020.4
20260906031901 75 71 1.7 3.5 0.00 0.00 0.00 89 1020.1
20260906031856 70 351 0.0 11.3 0.00 0.00 0.00 59 1021.7
20260906031851 69 330 2.6 9.6 0.00 0.00 0.00 73 1018.3
20260906031839 71 106 0.0 0.0 0.00 0.00 0.00 89 1017.0
20260906031835 63 13 0.0 0.0 0.00 0.00 0.00 86 1020.4
20260906031820 80 257 3.5 5.2 0.00 0.00 0.00 50 1017.8
20260906031815 79 76 12.2 21.7 0.12 2.75 0.00 61 1024.2
20260906031812 65 18 0.0 0.0 0.00 0.00 0.00 88 1020.4
20260906031401 76 85 1.7 4.3 0.00 0.00 0.00 88 1020.0
20260906031351 69 313 2.6 7.0 0.00 0.00 0.00 72 1018.3
20260906031329 63 13 0.0 0.0 0.00 0.00 0.00 86 1020.4
20260906031323 80 258 2.6 5.2 0.00 0.00 0.00 50 1017.8
20260906031318 65 18 0.0 0.0 0.00 0.00 0.00 87 1020.5
20260906031315 80 89 13.0 21.7 0.11 2.75 0.00 60 1025.6
20260906030901 76 61 1.7 4.3 0.00 0.00 0.00 88 1020.0
20260906030853 70 15 2.6 9.6 0.00 0.00 0.00 59 1021.7
20260906030851 69 0 4.3 8.7 0.00 0.00 0.00 72 1018.4
20260906030832 63 13 0.0 0.0 0.00 0.00 0.00 85 1020.4
20260906030821 77 65 11.3 20.0 0.10 2.75 0.00 62 1023.1
20260906030818 80 253 4.3 6.1 0.00 0.00 0.00 50 1017.8
20260906030809 66 18 0.0 0.0 0.00 0.00 0.00 87 1020.5
20260906030404 76 68 0.9 4.3 0.00 0.00 0.00 88 1020.0
20260906030355 70 28 0.0 7.8 0.00 0.00 0.00 59 1021.7
20260906030351 69 324 7.0 8.7 0.00 0.00 0.00 73 1018.4
20260906030335 63 13 0.0 0.0 0.00 0.00 0.00 85 1020.3
20260906030332 71 106 0.0 0.0 0.00 0.00 0.00 89 1017.0
20260906030320 80 255 3.5 6.1 0.00 0.00 0.00 51 1017.8
20260906030318 72 14 8.7 17.4 0.11 2.75 0.00 68 1017.9
20260906030309 66 18 0.0 0.0 0.00 0.00 0.00 87 1020.5
20260906025910 76 84 1.7 4.3 0.00 0.00 0.00 88 1020.0
20260906025855 69 19 4.3 10.4 0.00 0.00 0.00 73 1018.4
20260906025853 70 13 0.0 9.6 0.00 0.00 0.00 59 1021.6
20260906025835 63 13 0.0 0.0 0.00 0.00 0.00 85 1020.3
20260906025818 65 42 6.1 14.8 0.12 2.75 0.00 74 1012.1
20260906025809 66 18 0.0 0.0 0.00 0.00 0.00 87 1020.4
20260906025401 76 71 2.6 7.0 0.00 0.00 0.00 88 1019.8
20260906025354 69 345 3.5 9.6 0.00 0.00 0.00 73 1018.4
20260906025350 71 5 5.2 7.8 0.00 0.00 0.00 59 1021.7
20260906025329 63 13 0.0 0.0 0.00 0.00 0.00 85 1020.3
20260906025318 80 243 3.5 4.3 0.00 0.00 0.00 51 1017.8
20260906025315 61 82 4.3 13.0 0.12 2.75 0.00 79 1008.1
20260906025309 66 18 0.0 0.0 0.00 0.00 0.00 88 1020.5
20260906024904 76 64 1.7 7.0 0.00 0.00 0.00 87 1019.9
20260906024858 69 338 3.5 8.7 0.00 0.00 0.00 74 1018.4
20260906024853 71 5 0.9 7.0 0.00 0.00 0.00 60 1021.6
20260906024841 71 106 0.0 0.0 0.00 0.00 0.00 89 1017.0
20260906024829 64 13 0.0 0.0 0.00 0.00 0.00 85 1020.3
20260906024820 80 243 2.6 3.5 0.00 0.00 0.00 51 1017.7
20260906024816 60 87 3.5 13.9 0.10 2.75 0.00 79 1007.6
20260906024812 66 18 0.0 0.0 0.00 0.00 0.00 88 1020.4
20260906024410 76 85 0.9 5.2 0.00 0.00 0.00 87 1020.0
20260906024354 69 9 2.6 7.8 0.00 0.00 0.00 73 1018.5
20260906024338 64 13 0.0 0.0 0.00 0.00 0.00 84 1020.3
20260906024323 80 243 2.6 3.5 0.00 0.00 0.00 51 1017.7
20260906024316 64 56 5.2 16.5 0.10 2.75 0.00 76 1010.7
20260906024312 66 18 0.0 0.0 0.00 0.00 0.00 87 1020.5
20260906023901 76 79 2.6 4.3 0.00 0.00 0.00 87 1019.9
20260906023852 69 297 3.5 7.8 0.00 0.00 0.00 73 1018.5
20260906023849 71 5 0.0 7.0 0.00 0.00 0.00 59 1021.7
20260906023829 64 13 0.0 0.0 0.00 0.00 0.00 84 1020.3
20260906023818 70 2 7.8 20.0 0.11 2.75 0.00 70 1016.2
20260906023812 66 18 0.0 0.0 0.00 0.00 0.00 87 1020.5
20260906023401 76 70 3.5 5.2 0.00 0.00 0.00 87 1019.9
20260906023353 71 331 0.0 6.1 0.00 0.00 0.00 59 1021.7
20260906023351 69 26 3.5 7.8 0.00 0.00 0.00 73 1018.5
20260906023332 71 106 0.0 0.0 0.00 0.00 0.00 88 1017.0
20260906023329 64 13 0.0 0.0 0.00 0.00 0.00 85 1020.3
20260906023317 80 243 3.5 6.1 0.00 0.00 0.00 51 1017.7
20260906023309 66 18 0.0 1.7 0.00 0.00 0.00 87 1020.4
20260906022901 76 88 3.5 5.2 0.00 0.00 0.00 87 1019.9
20260906022853 71 9 0.0 7.8 0.00 0.00 0.00 59 1021.8
20260906022851 69 13 6.1 7.8 0.00 0.00 0.00 73 1018.5
20260906022838 64 13 0.0 0.0 0.00 0.00 0.00 85 1020.3
20260906022820 80 240 3.5 4.3 0.00 0.00 0.00 51 1017.7
20260906022818 80 86 13.0 21.7 0.12 2.75 0.00 60 1025.2
20260906022809 66 19 0.9 1.7 0.00 0.00 0.00 87 1020.4
20260906022404 76 44 4.3 5.2 0.00 0.00 0.00 87 1019.9
20260906022353 69 30 3.5 6.1 0.00 0.00 0.00 73 1018.5
20260906022350 72 5 3.5 5.2 0.00 0.00 0.00 59 1021.8
20260906022329 64 311 0.0 0.0 0.00 0.00 0.00 85 1020.3
20260906022317 80 240 3.5 4.3 0.00 0.00 0.00 51 1017.7
20260906022312 67 18 0.0 0.0 0.00 0.00 0.00 87 1020.5
20260906021903 76 71 1.7 4.3 0.00 0.00 0.00 87 1019.8
20260906021855 69 336 2.6 7.8 0.00 0.00 0.00 72 1018.5
20260906021850 72 355 0.0 4.3 0.00 0.00 0.00 58 1021.8
20260906021835 64 311 0.0 0.0 0.00 0.00 0.00 85 1020.2
20260906021832 72 106 0.0 0.0 0.00 0.00 0.00 88 1017.1
20260906021827 80 240 3.5 4.3 0.00 0.00 0.00 51 1017.7
20260906021821 75 47 10.4 19.1 0.10 2.75 0.00 64 1021.3
20260906021809 67 18 0.0 0.0 0.00 0.00 0.00 87 1020.5
20260906021409 76 72 2.6 5.2 0.00 0.00 0.00 87 1019.7
20260906021354 69 311 1.7 7.0 0.00 0.00 0.00 72 1018.5
20260906021350 72 311 2.6 6.1 0.00 0.00 0.00 58 1021.7
20260906021330 65 311 0.0 0.0 0.00 0.00 0.00 83 1020.2
20260906021320 80 240 4.3 5.2 0.00 0.00 0.00 51 1017.7
20260906021316 69 9 7.8 16.5 0.11 2.75 0.00 71 1015.5
20260906021310 67 18 0.0 0.0 0.00 0.00 0.00 87 1020.4
20260906020906 76 81 0.9 3.5 0.00 0.00 0.00 88 1019.7
20260906020855 69 350 3.5 8.7 0.00 0.00 0.00 72 1018.5
20260906020850 72 355 4.3 6.1 0.00 0.00 0.00 57 1021.6
20260906020830 65 311 0.0 0.0 0.00 0.00 0.00 84 1020.2
20260906020818 79 244 3.5 6.1 0.00 0.00 0.00 51 1017.7
20260906020816 63 62 5.2 13.9 0.12 2.75 0.00 76 1010.1
20260906020811 67 18 0.0 0.0 0.00 0.00 0.00 88 1020.4
20260906020404 76 59 2.6 3.5 0.00 0.00 0.00 88 1019.7
20260906020358 69 313 2.6 7.8 0.00 0.00 0.00 72 1018.5
20260906020350 72 355 0.0 4.3 0.00 0.00 0.00 57 1021.5
20260906020335 65 311 0.0 0.0 0.00 0.00 0.00 84 1020.1
20260906020329 72 106 0.0 0.0 0.00 0.00 0.00 88 1017.0
20260906020318 60 89 3.5 13.0 0.11 2.75 0.00 79 1007.4
20260906020309 67 18 0.0 0.0 0.00 0.00 0.00 87 1020.4
20260906015901 76 52 3.5 4.3 0.00 0.00 0.00 88 1019.6
20260906015849 72 0 0.0 5.2 0.00 0.00 0.00 58 1021.4
20260906015847 69 323 4.3 7.8 0.00 0.00 0.00 72 1018.4
20260906015838 65 311 0.0 0.0 0.00 0.00 0.00 84 1020.1
20260906015820 79 244 4.3 6.1 0.00 0.00 0.00 52 1017.7
20260906015812 61 78 4.3 14.8 0.10 2.75 0.00 78 1008.5
20260906015809 67 18 0.0 0.0 0.00 0.00 0.00 87 1020.3
20260906015404 76 79 2.6 3.5 0.00 0.00 0.00 88 1019.6
20260906015350 72 10 4.3 7.8 0.00 0.00 0.00 58 1021.4
20260906015332 65 311 0.0 0.0 0.00 0.00 0.00 82 1020.0
20260906015318 78 244 4.3 6.1 0.00 0.00 0.00 53 1017.7
20260906015315 67 18 0.0 0.0 0.00 0.00 0.00 86 1020.2
20260906015312 66 36 6.1 18.2 0.10 2.75 0.00 74 1012.8
20260906014907 76 76 0.9 3.5 0.00 0.00 0.00 88 1019.6
20260906014856 72 11 0.0 0.9 0.00 0.00 0.00 58 1021.4
20260906014853 69 311 3.5 9.6 0.00 0.00 0.00 73 1018.5
20260906014832 72 106 0.0 0.0 0.00 0.00 0.00 87 1017.0
20260906014829 66 208 0.0 0.0 0.00 0.00 0.00 82 1020.1
20260906014820 78 244 3.5 5.2 0.00 0.00 0.00 54 1017.7
20260906014815 72 21 9.6 20.9 0.11 2.75 0.00 67 1018.6
20260906014812 67 18 0.0 0.0 0.00 0.00 0.00 86 1020.3
20260906014401 76 78 1.7 2.6 0.00 0.00 0.00 87 1019.5
20260906014353 72 343 0.0 7.0 0.00 0.00 0.00 58 1021.4
20260906014350 69 343 4.3 6.1 0.00 0.00 0.00 74 1018.5
20260906014329 66 208 0.0 0.0 0.00 0.00 0.00 82 1020.0
20260906014321 79 231 4.3 6.1 0.00 0.00 0.00 53 1017.6
20260906014315 78 70 12.2 21.7 0.12 2.75 0.00 62 1023.6
20260906014313 67 18 0.0 0.0 0.00 0.00 0.00 86 1020.2
20260906013904 76 82 0.0 2.6 0.00 0.00 0.00 87 1019.6
20260906013853 69 330 4.3 7.0 0.00 0.00 0.00 74 1018.6
20260906013850 72 355 0.0 0.0 0.00 0.00 0.00 58 1021.3
20260906013832 67 208 0.0 0.0 0.00 0.00 0.00 82 1019.9
20260906013821 79 240 4.3 6.1 0.00 0.00 0.00 52 1017.6
20260906013818 80 89 13.0 21.7 0.11 2.75 0.00 60 1025.6
20260906013812 68 18 0.0 0.0 0.00 0.00 0.00 86 1020.1
20260906013407 76 81 0.9 3.5 0.00 0.00 0.00 87 1019.5
20260906013359 72 339 0.0 7.8 0.00 0.00 0.00 58 1021.3
20260906013347 69 323 2.6 7.0 0.00 0.00 0.00 75 1018.6
20260906013332 72 106 0.0 0.0 0.00 0.00 0.00 87 1017.0
20260906013326 79 229 4.3 6.1 0.00 0.00 0.00 52 1017.7
20260906013312 78 72 12.2 20.9 0.10 2.75 0.00 61 1023.8
20260906012907 76 81 0.9 2.6 0.00 0.00 0.00 87 1019.6
20260906012850 69 326 2.6 5.2 0.00 0.00 0.00 74 1018.5
20260906012829 67 208 0.0 0.0 0.00 0.00 0.00 82 1020.0
20260906012820 79 227 4.3 5.2 0.00 0.00 0.00 52 1017.7
20260906012815 73 24 9.6 18.2 0.10 2.75 0.00 67 1019.0
20260906012809 68 17 0.0 0.0 0.00 0.00 0.00 85 1020.2
20260906012401 76 83 0.9 2.6 0.00 0.00 0.00 87 1019.5
20260906012354 70 15 3.5 9.6 0.00 0.00 0.00 74 1018.5
20260906012349 73 0 0.9 1.7 0.00 0.00 0.00 57 1021.3
20260906012329 67 208 0.0 0.0 0.00 0.00 0.00 82 1019.9
20260906012317 79 235 4.3 6.1 0.00 0.00 0.00 52 1017.7
20260906012312 66 32 7.0 15.6 0.12 2.75 0.00 73 1013.1
20260906012309 68 17 0.0 0.0 0.00 0.00 0.00 85 1020.2
20260906011901 76 84 0.9 1.7 0.00 0.00 0.00 87 1019.5
20260906011854 70 290 4.3 8.7 0.00 0.00 0.00 73 1018.4
20260906011851 73 310 0.0 0.9 0.00 0.00 0.00 56 1021.3
20260906011832 67 208 0.0 0.0 0.00 0.00 0.00 81 1019.9
20260906011829 73 106 0.0 0.0 0.00 0.00 0.00 87 1017.1
20260906011817 80 240 3.5 7.0 0.00 0.00 0.00 51 1017.8
20260906011815 68 17 0.0 0.9 0.00 0.00 0.00 85 1020.1
20260906011812 61 77 4.3 13.0 0.12 2.75 0.00 78 1008.7
20260906011410 76 84 0.9 2.6 0.00 0.00 0.00 87 1019.5
20260906011350 70 321 5.2 9.6 0.00 0.00 0.00 72 1018.4
20260906011332 67 208 0.0 0.0 0.00 0.00 0.00 82 1019.8
20260906011323 79 250 6.1 6.1 0.00 0.00 0.00 52 1017.8
20260906011312 68 17 0.0 1.7 0.00 0.00 0.00 84 1020.1
20260906010901 76 88 0.9 2.6 0.00 0.00 0.00 87 1019.5
20260906010859 74 339 0.0 7.8 0.00 0.00 0.00 55 1021.2
20260906010850 70 328 7.0 9.6 0.00 0.00 0.00 70 1018.4
20260906010829 66 208 0.0 0.0 0.00 0.00 0.00 83 1019.9
20260906010817 80 248 6.1 7.0 0.00 0.00 0.00 51 1017.8
20260906010813 69 17 0.0 0.0 0.00 0.00 0.00 83 1020.1
20260906010407 76 90 0.0 3.5 0.00 0.00 0.00 87 1019.4
20260906010352 74 0 0.0 5.2 0.00 0.00 0.00 55 1021.1
20260906010350 70 341 4.3 7.0 0.00 0.00 0.00 70 1018.5
20260906010332 73 106 0.0 0.0 0.00 0.00 0.00 87 1017.0
20260906010318 68 13 7.8 19.1 0.11 2.75 0.00 71 1015.1
20260906010315 69 17 0.0 0.0 0.00 0.00 0.00 84 1020.1
20260906005907 76 73 0.9 7.0 0.00 0.00 0.00 87 1019.4
20260906005856 70 298 4.3 7.8 0.00 0.00 0.00 70 1018.5
20260906005850 74 23 1.7 7.8 0.00 0.00 0.00 55 1021.1
20260906005829 66 208 0.0 0.0 0.00 0.00 0.00 83 1019.8
20260906005819 79 244 6.1 7.0 0.00 0.00 0.00 54 1017.7
20260906005809 69 17 0.0 0.0 0.00 0.00 0.00 84 1020.2
20260906005404 76 82 1.7 3.5 0.00 0.00 0.00 87 1019.4
20260906005350 70 317 3.5 7.0 0.00 0.00 0.00 69 1018.4
20260906005332 67 49 0.0 0.0 0.00 0.00 0.00 82 1019.8
20260906005323 79 244 4.3 6.1 0.00 0.00 0.00 53 1017.7
20260906005319 79 82 12.2 21.7 0.12 2.75 0.00 60 1024.8
20260906005312 69 17 0.0 0.0 0.00 0.00 0.00 83 1020.1
20260906004907 76 77 3.5 4.3 0.00 0.00 0.00 87 1019.4
20260906004856 74 30 0.0 7.0 0.00 0.00 0.00 55 1021.1
20260906004851 70 5 1.7 7.8 0.00 0.00 0.00 69 1018.5
20260906004832 73 106 0.0 0.0 0.00 0.00 0.00 86 1017.0
20260906004829 67 49 0.0 0.0 0.00 0.00 0.00 83 1019.8
20260906004826 79 242 4.3 6.1 0.00 0.00 0.00 54 1017.7
20260906004815 69 17 0.0 0.0 0.00 0.00 0.00 84 1020.2
20260906004812 80 87 13.0 21.7 0.10 2.75 0.00 60 1025.3
20260906004401 76 71 1.7 2.6 0.00 0.00 0.00 86 1019.3
20260906004353 74 5 0.0 7.0 0.00 0.00 0.00 55 1021.1
20260906004329 67 49 0.0 0.0 0.00 0.00 0.00 83 1019.7
20260906004320 78 232 5.2 5.2 0.00 0.00 0.00 55 1017.6
20260906004315 76 56 11.3 20.0 0.10 2.75 0.00 63 1022.1
20260906004309 69 17 0.0 0.0 0.00 0.00 0.00 83 1020.2
20260906003907 76 75 0.9 4.3 0.00 0.00 0.00 86 1019.4
20260906003850 74 0 1.7 4.3 0.00 0.00 0.00 55 1021.0
20260906003847 71 321 3.5 8.7 0.00 0.00 0.00 68 1018.5
20260906003829 67 49 0.0 0.0 0.00 0.00 0.00 83 1019.7
20260906003821 79 232 4.3 6.1 0.00 0.00 0.00 54 1017.7
20260906003818 70 1 8.7 17.4 0.11 2.75 0.00 69 1016.6
20260906003813 69 17 0.0 0.0 0.00 0.00 0.00 83 1020.1
20260906003401 76 82 3.5 4.3 0.00 0.00 0.00 86 1019.4
20260906003353 75 22 0.0 0.9 0.00 0.00 0.00 55 1021.1
20260906003350 71 342 5.2 7.0 0.00 0.00 0.00 68 1018.6
20260906003329 74 106 0.0 0.0 0.00 0.00 0.00 86 1016.9
20260906003320 79 232 5.2 6.1 0.00 0.00 0.00 54 1017.7
20260906003312 69 17 0.0 1.7 0.00 0.00 0.00 84 1162.3
20260906002901 76 63 0.9 3.5 0.00 0.00 0.00 85 1019.3
20260906002855 75 345 0.0 0.0 0.00 0.00 0.00 54 1021.1
20260906002853 71 330 1.7 7.8 0.00 0.00 0.00 68 1018.5
20260906002829 67 49 0.0 0.0 0.00 0.00 0.00 82 1019.8
20260906002820 79 227 5.2 6.1 0.00 0.00 0.00 54 1017.7
20260906002815 60 86 3.5 12.2 0.12 2.75 0.00 79 1007.7
20260906002812 69 17 0.0 1.7 0.00 0.00 0.00 83 1071.0
20260906002401 76 73 1.7 4.3 0.00 0.00 0.00 85 1019.3
20260906002353 71 0 3.5 6.1 0.00 0.00 0.00 68 1018.6
20260906002350 75 355 0.0 8.7 0.00 0.00 0.00 54 1021.1
20260906002329 68 49 0.0 0.0 0.00 0.00 0.00 81 1019.7
20260906002319 79 236 5.2 6.1 0.00 0.00 0.00 55 1017.7
20260906002315 61 83 3.5 14.8 0.10 2.75 0.00 79 1008.0
20260906002309 70 19 0.0 0.0 0.00 0.00 0.00 82 1061.9
20260906001901 77 59 3.5 3.5 0.00 0.00 0.00 84 1019.3
20260906001851 71 5 1.7 5.2 0.00 0.00 0.00 67 1018.8
20260906001849 75 11 9.6 9.6 0.00 0.00 0.00 53 1021.2
20260906001829 74 106 0.0 0.0 0.00 0.00 0.00 85 1017.0
20260906001823 79 236 5.2 6.1 0.00 0.00 0.00 55 1017.7
20260906001818 65 46 6.1 17.4 0.10 2.75 0.00 75 1011.8
20260906001815 70 19 0.0 0.0 0.00 0.00 0.00 82 1058.5
20260906001401 77 67 1.7 3.5 0.00 0.00 0.00 84 1019.4
20260906001350 75 0 0.0 8.7 0.00 0.00 0.00 54 1021.1
20260906001347 71 37 2.6 7.0 0.00 0.00 0.00 67 1018.7
20260906001329 68 49 0.0 0.0 0.00 0.00 0.00 82 1019.7
20260906001317 79 229 4.3 6.1 0.00 0.00 0.00 54 1017.7
20260906001313 71 9 8.7 20.0 0.11 2.75 0.00 68 1017.5
20260906000904 77 69 2.6 2.6 0.00 0.00 0.00 84 1019.4
20260906000854 71 35 0.9 7.8 0.00 0.00 0.00 67 1018.6
20260906000852 75 34 1.7 5.2 0.00 0.00 0.00 54 1021.1
20260906000832 68 49 0.0 0.0 0.00 0.00 0.00 81 1019.7
20260906000822 77 62 11.3 21.7 0.12 2.75 0.00 63 1022.8
20260906000820 79 230 6.1 6.1 0.00 0.00 0.00 54 1017.7
20260906000809 70 19 0.0 0.0 0.00 0.00 0.00 82 1055.7
20260906000403 77 80 0.0 4.3 0.00 0.00 0.00 83 1019.3
20260906000355 75 58 0.0 7.0 0.00 0.00 0.00 55 1021.0
20260906000348 72 5 4.3 8.7 0.00 0.00 0.00 67 1018.6
20260906000335 68 49 0.0 0.0 0.00 0.00 0.00 81 1019.7
20260906000333 74 106 0.0 0.0 0.00 0.00 0.00 87 1017.1
20260906000318 78 229 6.1 7.0 0.00 0.00 0.00 56 1017.7
20260906000313 80 88 13.0 21.7 0.11 2.75 0.00 60 1025.5
20260906000311 70 19 0.0 0.0 0.00 0.00 0.00 82 1055.7
20260905235904 77 90 0.9 2.6 0.00 0.00 0.00 83 1019.3
20260905235852 75 54 6.1 8.7 0.00 0.00 0.00 55 1021.1
20260905235847 72 331 1.7 6.1 0.00 0.00 0.00 67 1018.6
20260905235829 68 49 0.0 0.0 0.00 0.00 0.00 80 1019.7
20260905235821 78 230 6.1 7.0 0.00 0.00 0.00 55 1017.8
20260905235815 70 19 0.0 0.0 0.00 0.00 0.00 82 1055.6
20260905235813 79 78 12.2 20.9 0.10 2.75 0.00 61 1024.5
20260905235410 77 90 0.0 1.7 0.00 0.00 0.00 83 1019.3
20260905235359 75 20 0.0 7.8 0.00 0.00 0.00 56 1020.9
20260905235347 72 327 1.7 7.0 0.00 0.00 0.00 67 1018.7
20260905235329 69 49 0.0 0.0 0.00 0.00 0.00 80 1019.7
20260905235319 74 36 10.4 19.1 0.10 2.75 0.00 65 1020.1
20260905235317 79 231 5.2 6.1 0.00 0.00 0.00 54 1017.8
20260905235309 70 19 0.0 0.9 0.00 0.00 0.00 82 1055.6
20260905234901 77 90 0.9 1.7 0.00 0.00 0.00 83 1019.2
20260905234853 75 14 7.0 9.6 0.00 0.00 0.00 55 1020.9
20260905234847 72 355 2.6 4.3 0.00 0.00 0.00 66 1018.7
20260905234835 69 49 0.0 0.0 0.00 0.00 0.00 79 1019.7
20260905234833 74 106 0.0 0.0 0.00 0.00 0.00 89 1017.1
20260905234823 78 227 4.3 6.1 0.00 0.00 0.00 56 1017.8
20260905234819 68 21 7.0 15.6 0.11 2.75 0.00 72 1014.3
20260905234809 71 19 0.0 0.0 0.00 0.00 0.00 81 1055.5
20260905234404 77 90 0.0 2.6 0.00 0.00 0.00 83 1019.3
20260905234354 72 341 3.5 6.1 0.00 0.00 0.00 66 1018.7
20260905234349 76 32 0.0 8.7 0.00 0.00 0.00 55 1020.9
20260905234332 70 49 0.0 0.0 0.00 0.00 0.00 78 1019.6
20260905234319 62 70 4.3 13.0 0.12 2.75 0.00 77 1009.3
20260905234317 78 235 3.5 6.1 0.00 0.00 0.00 58 1017.8
20260905234309 71 19 0.0 0.9 0.00 0.00 0.00 81 1055.5
20260905233910 77 86 0.0 2.6 0.00 0.00 0.00 83 1019.2
20260905233849 76 0 4.3 9.6 0.00 0.00 0.00 55 1020.9
20260905233835 70 49 0.0 0.0 0.00 0.00 0.00 78 1019.5
20260905233822 78 234 4.3 7.8 0.00 0.00 0.00 59 1017.8
20260905233816 71 19 0.0 0.0 0.00 0.00 0.00 81 1055.4
20260905233813 60 89 3.5 13.0 0.11 2.75 0.00 79 1007.3
20260905233401 77 81 2.6 3.5 0.00 0.00 0.00 83 1019.2
20260905233351 72 17 3.5 7.8 0.00 0.00 0.00 67 1018.6
20260905233349 76 16 7.8 8.7 0.00 0.00 0.00 55 1020.9
20260905233329 74 106 0.0 0.0 0.00 0.00 0.00 90 1017.2
20260905233321 78 233 5.2 7.0 0.00 0.00 0.00 58 1017.8
20260905233313 62 72 4.3 15.6 0.10 2.75 0.00 78 1009.1
20260905233309 71 19 0.0 0.0 0.00 0.00 0.00 81 1055.4
20260905232901 77 65 1.7 7.0 0.00 0.00 0.00 83 1019.1
20260905232857 72 328 2.6 9.6 0.00 0.00 0.00 67 1018.6
20260905232855 76 0 0.9 9.6 0.00 0.00 0.00 55 1020.8
20260905232832 70 49 0.0 0.0 0.00 0.00 0.00 78 1019.4
20260905232817 78 227 3.5 7.0 0.00 0.00 0.00 59 1017.8
20260905232813 71 19 0.0 0.0 0.00 0.00 0.00 81 1055.5
20260905232410 77 84 3.5 7.0 0.00 0.00 0.00 83 1019.2
20260905232355 76 13 0.0 8.7 0.00 0.00 0.00 55 1020.7
20260905232348 72 325 1.7 8.7 0.00 0.00 0.00 67 1018.6
20260905232329 70 49 0.0 0.0 0.00 0.00 0.00 77 1019.4
20260905232323 78 230 6.1 6.1 0.00 0.00 0.00 59 1017.8
20260905232319 74 32 9.6 20.9 0.12 2.75 0.00 66 1019.8
20260905232309 71 19 0.0 0.0 0.00 0.00 0.00 81 1055.4
20260905231904 78 67 0.9 4.3 0.00 0.00 0.00 82 1019.1
20260905231853 76 355 0.0 9.6 0.00 0.00 0.00 55 1020.7
20260905231851 72 329 4.3 9.6 0.00 0.00 0.00 67 1018.6
20260905231832 71 49 0.0 0.0 0.00 0.00 0.00 77 1019.4
20260905231829 74 106 0.0 0.0 0.00 0.00 0.00 90 1017.2
20260905231817 79 238 4.3 6.1 0.00 0.00 0.00 56 1017.9
20260905231813 79 76 12.2 21.7 0.12 2.75 0.00 61 1024.3
20260905231401 78 67 1.7 3.5 0.00 0.00 0.00 82 1019.1
20260905231356 77 17 8.7 10.4 0.00 0.00 0.00 54 1020.7
20260905231351 72 10 7.0 8.7 0.00 0.00 0.00 68 1018.6
20260905231335 71 49 0.0 0.0 0.00 0.00 0.00 77 1019.4
20260905231323 79 237 4.3 5.2 0.00 0.00 0.00 54 1017.8
20260905231313 80 89 13.0 21.7 0.11 2.75 0.00 60 1025.5
20260905230901 78 86 2.6 4.3 0.00 0.00 0.00 82 1019.1
20260905230854 72 14 4.3 7.8 0.00 0.00 0.00 68 1018.6
20260905230849 77 344 5.2 7.0 0.00 0.00 0.00 54 1020.6
20260905230832 71 49 0.0 0.0 0.00 0.00 0.00 76 1019.3
20260905230820 79 237 5.2 6.1 0.00 0.00 0.00 54 1017.8
20260905230816 77 65 11.3 20.0 0.10 2.75 0.00 62 1023.0
20260905230809 71 19 0.0 0.9 0.00 0.00 0.00 80 1055.3
20260905230401 78 67 0.9 4.3 0.00 0.00 0.00 81 1019.0
20260905230352 77 26 0.0 7.8 0.00 0.00 0.00 55 1020.7
20260905230333 71 49 0.0 0.0 0.00 0.00 0.00 75 1019.3
20260905230329 74 106 0.0 0.0 0.00 0.00 0.00 89 1017.2
20260905230317 79 237 5.2 6.1 0.00 0.00 0.00 54 1017.9
20260905230309 71 19 0.0 0.0 0.00 0.00 0.00 80 1055.2
20260905225904 78 94 1.7 6.1 0.00 0.00 0.00 81 1019.0
20260905225851 72 347 5.2 8.7 0.00 0.00 0.00 69 1018.6
20260905225849 77 344 0.0 7.8 0.00 0.00 0.00 55 1020.6
20260905225832 72 49 0.0 0.0 0.00 0.00 0.00 76 1019.2
20260905225817 79 237 4.3 6.1 0.00 0.00 0.00 56 1017.9
20260905225815 72 19 0.0 0.0 0.00 0.00 0.00 80 1055.2
20260905225813 65 43 6.1 14.8 0.12 2.75 0.00 74 1012.1
20260905225401 78 67 3.5 3.5 0.00 0.00 0.00 81 1018.9
20260905225352 77 27 0.0 11.3 0.00 0.00 0.00 55 1020.4
20260905225348 72 309 2.6 7.0 0.00 0.00 0.00 70 1018.5
20260905225329 72 49 0.0 0.0 0.00 0.00 0.00 75 1019.2
20260905225322 61 82 4.3 13.0 0.12 2.75 0.00 79 1008.1
20260905225317 79 237 3.5 6.1 0.00 0.00 0.00 57 1017.9
20260905225310 72 19 0.0 0.0 0.00 0.00 0.00 80 1055.1
20260905224904 78 65 2.6 2.6 0.00 0.00 0.00 81 1018.8
20260905224851 72 5 4.3 7.0 0.00 0.00 0.00 70 1018.5
20260905224849 77 14 0.0 8.7 0.00 0.00 0.00 56 1020.4
20260905224835 72 49 0.0 0.0 0.00 0.00 0.00 74 1019.2
20260905224829 74 106 0.0 0.0 0.00 0.00 0.00 89 1017.2
20260905224821 79 237 4.3 5.2 0.00 0.00 0.00 58 1017.9
20260905224813 60 87 3.5 13.9 0.10 2.75 0.00 79 1007.6
20260905224404 78 78 1.7 3.5 0.00 0.00 0.00 81 1018.7
20260905224349 77 29 4.3 7.8 0.00 0.00 0.00 56 1020.4
20260905224329 73 49 0.0 0.0 0.00 0.00 0.00 74 1019.2
20260905224320 79 237 5.2 6.1 0.00 0.00 0.00 57 1017.9
20260905224312 71 19 0.0 0.0 0.00 0.00 0.00 80 1055.1
20260905223904 78 74 0.9 3.5 0.00 0.00 0.00 81 1018.7
20260905223850 77 19 0.9 9.6 0.00 0.00 0.00 57 1020.3
20260905223848 72 355 2.6 7.0 0.00 0.00 0.00 71 1018.5
20260905223835 73 49 0.0 0.0 0.00 0.00 0.00 73 1019.1
20260905223819 70 1 7.8 20.0 0.11 2.75 0.00 70 1016.3
20260905223817 79 237 5.2 6.1 0.00 0.00 0.00 57 1017.9
20260905223809 71 19 0.0 0.9 0.00 0.00 0.00 81 1055.0
20260905223401 78 82 0.9 3.5 0.00 0.00 0.00 81 1018.6
20260905223349 77 9 0.0 0.9 0.00 0.00 0.00 58 1020.2
20260905223340 74 106 0.0 0.0 0.00 0.00 0.00 88 1017.2
20260905223335 73 49 0.0 0.0 0.00 0.00 0.00 74 1019.0
20260905223320 79 237 4.3 6.1 0.00 0.00 0.00 58 1017.9
20260905223313 76 53 11.3 21.7 0.12 2.75 0.00 64 1021.9
20260905223309 71 19 0.0 0.9 0.00 0.00 0.00 81 1055.0
20260905222907 78 90 1.7 3.5 0.00 0.00 0.00 80 1018.5
20260905222849 77 355 0.0 9.6 0.00 0.00 0.00 57 1020.2
20260905222829 72 49 0.0 0.0 0.00 0.00 0.00 75 1018.9
20260905222822 80 86 13.0 21.7 0.12 2.75 0.00 60 1025.2
20260905222817 79 237 6.1 6.1 0.00 0.00 0.00 59 1018.0
20260905222812 71 19 0.0 1.7 0.00 0.00 0.00 80 1054.9
20260905222407 78 71 0.9 3.5 0.00 0.00 0.00 80 1018.7
20260905222356 77 26 7.0 8.7 0.00 0.00 0.00 57 1020.2
20260905222348 72 0 3.5 8.7 0.00 0.00 0.00 73 1018.5
20260905222329 72 49 0.0 0.0 0.00 0.00 0.00 76 1018.8
20260905222320 79 237 5.2 6.1 0.00 0.00 0.00 59 1018.0
20260905222309 72 17 0.0 0.0 0.00 0.00 0.00 79 1054.8
20260905221901 78 78 2.6 3.5 0.00 0.00 0.00 80 1018.6
20260905221852 77 22 0.0 7.0 0.00 0.00 0.00 57 1020.0
20260905221849 72 11 3.5 10.4 0.00 0.00 0.00 75 1018.4
20260905221833 74 106 0.0 0.0 0.00 0.00 0.00 87 1017.1
20260905221830 72 49 0.0 0.0 0.00 0.00 0.00 76 1018.8
20260905221819 75 46 10.4 19.1 0.10 2.75 0.00 64 1021.2
20260905221809 72 17 0.0 1.7 0.00 0.00 0.00 79 1054.8
20260905221401 79 74 2.6 5.2 0.00 0.00 0.00 79 1018.6
20260905221359 77 9 4.3 7.8 0.00 0.00 0.00 57 1020.0
20260905221351 72 27 5.2 10.4 0.00 0.00 0.00 76 1018.3
20260905221329 72 49 0.0 0.0 0.00 0.00 0.00 76 1018.8
20260905221323 78 237 6.1 6.1 0.00 0.00 0.00 63 1017.8
20260905221313 69 10 7.8 16.5 0.11 2.75 0.00 71 1015.4